ECMWFFLT1_sfc_dewp_000.txt.gz
Dewpoint
44 46 50 52 53 51 51 53 53 55 55 55 55 54 55 54 55 54 54 53 50 50 49 50 52 52 54 55 57 57 56 56 57 58 57 58 58 58 60 60 61 60 62 62 59 57 58 56 58 63 63 62 60 60 61 60 61 60 63 63 60 60 61
46 48 46 48 49 52 52 51 52 52 54 54 52 55 53 49 47 47 48 47 46 44 41 43 48 51 54 56 56 56 56 57 56 55 53 53 54 55 54 54 55 57 58 60 59 57 57 55 55 58 59 62 60 59 61 62 61 62 62 61 60 59 61
45 45 44 47 51 51 51 52 51 51 50 51 53 52 50 47 48 48 47 47 47 44 43 44 46 49 51 53 55 56 56 55 55 55 55 54 54 54 54 53 52 52 52 54 55 54 54 56 52 51 53 54 58 61 59 57 56 57 59 60 61 57 57
46 48 46 51 49 50 51 51 50 50 50 49 50 52 50 49 51 49 48 48 48 47 44 44 46 43 48 49 50 52 53 53 53 53 53 54 52 52 52 50 49 50 51 51 51 51 52 51 50 50 50 47 45 49 54 55 57 56 53 53 55 56 58
48 48 48 50 49 49 50 48 48 49 51 50 51 50 50 50 51 50 51 50 48 48 47 46 46 44 46 46 46 47 49 50 50 49 50 50 50 49 51 50 49 50 50 49 50 50 50 50 50 49 45 43 43 44 45 53 50 51 50 48 49 55 56
49 48 47 48 50 47 48 48 48 47 48 49 49 50 51 52 51 52 51 48 48 49 47 45 46 47 47 46 47 48 48 48 48 49 46 49 49 47 45 46 44 46 48 49 49 50 49 49 49 47 46 45 45 45 42 42 43 43 45 47 49 49 51
48 49 48 47 49 47 47 48 47 46 47 50 50 51 50 50 51 52 51 50 49 49 48 49 49 47 47 42 47 48 48 48 48 48 47 48 48 47 46 43 45 43 45 46 47 48 47 47 46 47 47 45 45 40 36 36 38 39 42 46 48 49 49
47 45 45 47 49 48 48 50 47 46 46 49 49 52 51 51 53 53 53 52 50 50 49 49 48 48 47 44 46 50 48 48 48 48 47 48 46 46 46 43 43 42 42 41 43 45 43 45 45 46 45 42 41 42 41 40 39 42 42 44 44 43 49
48 46 45 46 48 51 51 48 48 48 47 47 50 53 53 53 53 54 53 53 51 51 50 49 48 47 47 46 46 48 48 47 49 49 48 48 48 47 46 45 43 41 42 41 42 42 42 46 45 45 45 45 42 40 42 42 42 41 44 45 45 45 47
56 53 48 50 53 55 54 52 48 48 48 49 49 53 54 54 54 54 53 53 52 51 50 48 47 47 47 46 46 47 48 48 48 47 47 47 47 46 46 46 43 42 43 45 44 45 47 47 46 45 44 43 44 42 40 40 42 42 42 44 44 44 45
56 57 55 54 56 56 55 54 52 51 50 49 50 52 54 54 54 54 54 53 53 51 50 49 47 48 48 46 47 46 46 48 47 46 46 45 45 44 43 45 43 42 45 46 45 46 47 48 46 46 45 45 45 43 42 42 42 44 43 44 44 44 49
56 56 56 57 58 56 56 54 54 53 53 52 50 52 54 53 54 54 54 53 53 51 50 49 49 48 48 47 47 46 47 47 45 45 44 44 43 43 43 44 42 41 43 45 46 46 47 46 46 44 44 45 45 47 46 44 43 43 47 46 46 46 47
53 53 56 58 57 56 55 54 54 55 54 52 50 51 51 52 53 53 53 52 52 51 50 49 49 48 48 48 46 45 46 45 44 45 43 42 38 42 42 42 41 40 41 40 43 44 42 44 45 42 44 45 44 46 46 44 44 44 45 45 45 46 44
56 55 56 57 57 57 56 55 54 55 54 53 50 50 50 51 51 52 52 52 50 50 50 49 49 48 47 47 46 46 44 43 42 42 42 44 42 42 37 37 38 40 43 43 42 41 41 40 43 43 43 42 42 44 45 45 43 44 45 47 46 44 45
56 56 57 57 57 55 56 55 56 55 55 54 51 50 48 51 51 51 50 50 50 49 49 47 47 47 46 47 47 47 46 43 41 41 43 39 41 41 43 39 36 38 38 38 43 38 36 37 36 36 38 42 38 41 44 42 41 42 43 45 44 44 44
53 56 56 56 57 55 55 56 55 56 54 54 52 51 49 51 51 50 50 51 50 49 47 47 48 47 47 46 44 46 46 44 44 44 43 40 35 37 41 39 39 39 40 41 41 42 42 41 39 35 40 40 41 42 41 40 41 41 42 42 44 41 43
55 55 56 55 56 56 55 55 55 55 54 53 52 52 49 51 50 50 51 50 49 48 47 48 47 46 45 45 44 44 43 44 44 42 41 39 36 38 38 38 39 39 39 40 39 38 38 40 40 37 39 41 43 42 44 44 44 43 41 41 42 39 40
56 56 56 55 56 55 55 55 55 53 53 53 53 53 51 52 50 49 52 50 49 48 47 47 46 46 46 46 44 44 43 42 44 42 42 41 42 39 37 37 36 37 38 40 40 38 38 41 36 38 37 36 35 38 42 43 43 42 41 41 42 42 43
56 56 56 57 57 55 54 54 54 54 51 51 53 53 53 51 50 49 50 49 48 47 46 46 45 45 45 45 45 45 44 43 42 40 40 38 36 36 38 36 36 36 36 38 39 39 40 41 39 40 38 36 34 37 40 40 40 41 40 39 41 40 42
55 57 57 57 57 55 55 55 53 53 53 52 52 53 53 51 51 50 50 49 48 47 46 46 46 46 45 44 44 44 44 43 41 40 36 33 33 34 35 34 36 36 36 36 37 38 40 41 41 41 41 42 38 40 39 38 37 37 38 38 38 39 39
55 55 55 56 55 56 55 55 54 53 53 53 53 52 50 52 52 50 50 48 48 47 46 46 45 45 44 44 44 44 42 42 38 37 37 32 34 34 34 33 33 33 34 34 36 37 37 36 36 38 38 39 40 40 39 38 38 37 37 38 37 36 37
53 54 54 55 55 55 55 55 55 54 54 54 53 52 51 52 51 49 48 49 47 47 47 47 45 45 44 44 43 42 40 36 36 34 33 32 33 32 31 33 31 32 33 36 40 39 39 40 35 32 35 35 37 38 39 39 38 35 36 37 36 37 36
51 52 53 53 53 55 54 55 55 54 53 53 53 53 52 53 50 51 49 47 47 49 48 47 46 42 42 42 41 37 38 36 32 32 31 31 32 31 31 31 34 33 39 39 39 38 38 38 40 38 35 37 36 36 37 37 36 36 36 34 34 34 34
48 50 51 52 53 53 53 54 54 54 54 53 54 53 52 51 53 55 48 47 48 49 48 46 37 34 34 35 38 38 36 34 32 31 31 31 30 31 32 29 32 38 39 39 38 37 37 37 37 38 38 39 39 36 36 35 35 36 35 35 36 35 34
43 47 50 49 51 52 53 53 53 53 54 54 53 52 52 49 49 48 48 47 49 49 47 37 33 33 33 33 34 35 35 34 32 31 30 29 28 29 30 32 33 34 34 34 32 28 36 37 36 36 36 36 36 36 37 38 36 35 36 35 35 36 36
39 43 47 49 50 52 52 52 52 53 53 53 53 51 50 50 50 49 49 47 47 46 39 33 33 33 33 34 33 34 30 32 31 29 29 30 28 28 29 30 32 33 33 41 34 32 32 32 36 37 36 36 36 36 34 35 36 38 36 35 36 36 36
40 41 45 48 50 50 51 50 52 53 53 52 52 51 51 50 50 49 48 47 47 45 38 34 33 33 33 33 33 34 32 33 31 29 29 29 31 31 32 32 30 31 32 33 33 33 33 32 31 32 34 35 36 37 36 34 34 35 37 35 34 34 36
41 42 43 46 49 49 50 51 51 51 51 52 51 50 50 50 49 48 47 45 44 43 37 34 33 33 33 33 31 33 34 34 32 31 31 31 31 32 32 33 34 33 33 33 33 33 31 30 31 32 32 33 34 35 36 37 38 38 37 37 36 36 36
43 42 44 46 48 49 50 51 50 51 51 51 51 51 49 49 48 47 49 47 45 42 36 33 33 33 33 34 32 31 32 34 33 31 31 32 31 31 31 32 33 33 33 33 33 32 33 31 30 31 32 33 34 35 35 36 35 35 37 38 38 38 39
44 44 45 46 46 49 49 50 50 50 51 51 50 50 49 48 47 47 46 45 44 41 34 33 33 33 33 34 33 30 33 31 31 33 33 33 32 32 32 32 33 32 33 31 31 31 33 36 31 31 32 33 34 34 34 35 34 35 34 34 34 34 34
43 44 45 46 47 49 49 49 49 49 49 50 50 49 48 47 47 46 45 43 43 42 36 33 34 33 34 34 32 31 31 31 32 32 32 33 33 32 33 40 36 32 33 33 32 32 33 34 32 32 33 32 32 32 32 33 34 34 35 35 34 34 34
45 45 45 46 47 48 48 48 48 49 50 50 50 49 47 46 45 46 45 44 42 41 38 36 34 34 34 34 35 31 29 28 30 31 31 31 32 32 32 35 38 35 34 33 32 33 33 33 33 34 32 32 31 31 31 32 32 32 33 33 34 36 37
45 46 46 47 47 47 47 48 49 48 49 49 50 49 46 45 45 45 45 43 42 39 37 36 35 34 34 34 34 35 31 28 29 31 31 29 31 32 31 31 32 34 34 33 33 33 33 34 34 34 32 31 31 31 32 32 33 33 33 32 33 34 34
45 46 47 48 47 46 47 48 49 50 50 50 49 47 46 45 45 44 43 42 39 40 40 40 37 34 34 35 34 34 32 32 32 31 30 29 29 29 28 27 29 31 33 34 34 34 34 34 34 34 33 32 32 32 33 32 32 33 32 32 32 32 32
46 48 48 47 46 46 47 48 49 50 48 47 47 46 45 45 44 44 42 40 40 38 37 41 40 36 34 34 34 35 35 34 36 34 30 27 27 27 28 28 30 33 33 33 33 33 33 33 33 33 32 31 31 32 31 31 31 31 31 31 30 30 31
46 48 49 48 46 46 47 49 49 48 48 47 45 44 45 44 43 42 40 37 38 38 39 37 35 36 35 34 34 35 34 35 33 35 31 30 30 29 30 32 32 35 33 33 33 33 33 33 33 32 31 32 32 32 32 31 31 31 30 30 30 30 31
46 47 48 48 47 47 50 49 47 46 46 44 44 43 45 42 39 37 36 40 35 33 33 33 34 33 34 32 33 33 33 33 33 34 34 32 31 31 32 32 32 32 32 32 33 33 33 33 32 32 32 32 32 33 32 31 31 31 31 31 31 30 30

ECMWFFLT1_sfc_dewp_003.txt.gz
Dewpoint
48 50 51 51 52 50 51 54 54 55 54 54 54 53 54 53 53 52 51 51 48 48 48 50 52 52 55 54 56 55 54 55 56 58 57 59 58 59 61 60 61 61 60 59 57 56 56 55 58 63 64 63 60 60 59 60 63 64 65 66 64 64 65
49 48 48 48 48 51 52 52 53 52 53 54 53 51 48 47 48 48 48 47 46 44 41 44 49 52 55 56 55 55 56 56 55 56 54 53 54 55 55 58 60 57 58 59 58 58 55 54 55 56 58 63 63 61 59 60 61 61 64 65 64 61 64
49 46 47 48 50 50 51 51 51 50 50 52 51 48 48 46 47 47 46 46 46 43 42 43 46 50 52 53 55 56 56 56 56 56 55 54 53 54 52 52 52 52 56 56 55 52 53 56 52 50 53 54 58 63 61 57 56 54 52 54 59 56 54
50 48 48 49 48 51 50 51 50 49 50 50 50 51 50 49 49 48 48 47 48 48 44 44 46 44 48 49 51 52 52 53 52 52 52 52 51 50 49 47 47 49 49 48 51 49 49 48 48 48 49 46 45 47 58 60 57 53 52 54 51 49 49
49 48 50 49 49 51 50 49 49 49 49 50 51 49 51 50 50 49 50 50 49 49 47 47 46 45 47 48 48 49 50 50 50 49 49 49 49 48 48 46 46 47 48 48 48 48 48 47 47 44 40 39 39 40 41 53 47 47 48 48 47 48 48
49 48 50 50 50 49 49 49 49 48 49 49 49 49 51 52 50 51 50 48 48 49 48 45 47 47 47 47 48 48 48 47 47 49 48 49 48 45 44 45 43 44 46 47 48 47 48 48 46 43 42 42 43 42 39 39 42 41 41 43 44 47 48
49 50 49 49 50 47 48 48 48 48 49 51 51 51 50 51 51 51 51 49 48 49 49 50 50 48 48 43 47 48 48 49 49 49 48 49 49 47 45 44 42 43 44 46 46 47 47 46 44 45 45 44 43 40 39 36 35 35 37 39 41 43 47
49 47 46 48 50 49 48 50 48 48 48 50 49 52 50 52 53 52 51 50 49 50 49 49 48 48 48 45 46 48 48 48 48 47 46 48 47 45 47 43 44 43 41 41 42 45 43 44 45 46 44 42 41 42 41 38 37 35 36 41 42 41 44
48 49 47 47 49 50 51 50 49 49 49 49 52 53 51 52 53 52 51 51 49 49 49 49 48 46 48 46 45 48 47 46 49 50 49 49 48 49 46 45 45 42 44 42 41 42 42 46 44 44 45 45 42 40 40 39 40 39 38 39 41 43 41
51 50 48 50 51 52 52 51 48 48 51 51 52 54 52 52 53 53 52 51 51 50 49 48 47 47 48 46 47 48 48 48 47 45 48 47 48 47 45 47 42 43 42 43 45 46 45 46 46 45 44 43 44 41 40 39 40 41 41 39 38 39 38
52 51 49 48 50 51 51 51 50 48 49 50 51 54 52 53 53 53 53 52 52 51 50 48 46 46 47 45 46 46 45 48 48 48 47 45 45 44 43 44 41 42 43 45 44 47 46 46 44 45 44 44 44 43 43 41 42 42 40 44 42 39 43
54 53 52 50 50 51 51 51 50 50 50 50 50 54 52 52 53 53 54 52 52 50 49 49 48 48 47 46 47 45 47 48 46 45 46 46 45 45 44 45 42 41 43 43 45 46 47 46 44 41 41 44 45 46 44 44 42 43 44 45 45 44 43
51 50 53 53 51 50 48 49 49 51 51 48 50 52 51 52 52 52 52 52 52 51 49 48 48 48 48 48 46 46 46 46 44 44 44 45 41 44 44 45 42 40 41 37 41 44 42 43 46 42 41 41 41 44 44 44 43 42 44 43 43 43 42
52 49 52 52 53 53 52 50 50 50 49 51 50 51 50 51 50 51 51 51 50 50 50 50 49 49 48 48 47 46 44 43 42 43 43 43 42 43 39 38 40 43 43 41 41 40 39 40 41 43 44 43 42 43 42 43 42 42 43 45 44 43 43
55 58 59 58 57 58 56 52 53 48 49 51 50 49 49 50 50 50 50 49 50 48 49 48 48 49 47 47 47 46 45 43 42 42 43 42 43 43 43 42 37 40 39 36 41 34 33 35 34 31 33 39 38 40 42 40 39 39 40 41 40 40 41
54 56 58 56 56 57 56 58 58 56 49 48 51 49 48 50 50 50 49 50 49 49 48 47 48 47 47 47 45 46 46 43 43 44 43 42 39 41 43 43 41 42 42 42 43 42 41 38 37 35 37 37 39 40 40 40 41 40 40 40 42 39 40
57 55 55 54 54 55 58 57 55 56 57 57 52 50 47 47 49 50 50 49 49 49 48 48 48 46 46 46 45 44 44 44 44 44 43 41 37 40 41 41 41 41 40 40 41 40 38 39 40 37 38 37 37 36 41 44 45 44 43 42 43 39 39
56 58 59 58 58 58 57 56 56 52 55 56 55 58 53 47 49 48 51 50 49 49 49 47 47 46 47 47 46 46 45 43 45 44 43 42 44 41 40 40 39 38 40 39 41 40 39 42 37 38 37 36 34 35 37 38 40 41 40 39 39 40 40
57 57 58 57 58 60 59 57 57 60 54 54 54 54 54 51 48 47 48 49 49 49 49 48 47 46 46 47 47 47 46 45 45 43 43 42 41 40 41 39 39 38 37 40 39 40 40 40 39 40 38 37 35 37 39 38 38 38 36 36 38 38 39
58 58 59 58 58 57 58 58 56 54 53 54 53 53 52 52 55 51 47 49 49 50 49 48 48 48 46 46 47 46 47 46 45 44 43 41 39 39 39 37 38 38 37 37 38 39 40 41 41 40 40 40 38 40 40 39 37 37 37 36 36 37 36
52 54 53 54 56 58 59 57 58 58 58 56 57 53 51 51 56 56 53 49 50 50 50 48 48 47 47 47 47 47 46 47 45 44 44 40 38 37 37 36 36 35 36 36 39 39 39 37 36 36 35 35 35 35 36 36 37 36 37 37 36 35 36
54 53 52 54 54 55 53 55 58 58 58 58 58 56 57 53 54 56 52 51 50 51 50 50 48 48 48 46 47 47 47 45 44 43 40 37 37 35 35 35 34 34 41 41 36 38 39 39 31 27 30 32 34 35 36 35 35 34 35 36 36 36 34
46 48 50 51 51 52 53 54 54 55 56 56 56 56 55 56 55 54 53 52 51 53 51 50 49 45 45 46 47 46 47 45 41 40 39 37 37 35 34 35 36 43 38 34 32 34 35 37 40 37 30 32 32 33 33 34 33 33 34 33 33 34 34
41 41 45 48 49 50 50 52 53 52 53 54 55 54 55 54 55 55 53 53 56 52 52 50 42 41 41 43 46 46 44 42 40 38 37 36 36 35 34 31 34 41 39 40 35 35 35 35 35 37 37 37 37 34 31 29 30 32 31 32 32 32 32
38 40 42 43 46 47 48 49 51 51 52 53 54 55 55 54 54 55 54 53 52 53 52 41 37 36 36 36 39 44 41 40 39 37 36 34 33 34 34 35 35 37 36 36 35 36 35 35 36 36 35 36 36 36 37 36 32 31 32 31 31 32 33
37 38 39 40 43 47 48 48 48 49 51 52 53 52 52 54 53 54 53 53 52 51 43 36 34 35 35 35 35 39 37 38 37 47 35 34 32 31 32 33 34 35 34 43 35 31 32 36 37 35 36 36 36 35 34 34 34 37 34 33 32 32 32
38 38 40 40 40 41 46 48 49 49 49 51 51 51 52 54 53 53 53 52 53 44 42 36 35 35 35 35 34 36 42 38 38 34 34 33 34 34 33 33 32 34 35 35 35 34 34 35 35 37 38 37 35 38 36 34 34 35 36 36 35 34 35
39 40 40 40 41 42 43 47 48 49 48 49 50 51 51 52 53 53 53 52 47 43 40 35 35 35 34 34 33 32 37 38 36 35 35 34 34 35 34 35 35 34 34 34 36 35 35 33 33 33 32 32 32 32 34 36 38 37 37 38 36 37 38
40 39 40 40 40 40 43 47 49 49 48 47 48 49 50 51 52 53 52 49 45 40 37 34 34 33 32 32 31 34 38 38 40 34 34 34 34 34 34 35 35 35 36 35 35 32 33 33 32 31 31 31 32 33 35 36 36 37 37 37 37 37 37
38 39 39 40 40 42 43 45 48 48 48 49 48 48 47 48 50 51 50 48 43 40 35 33 32 32 31 32 29 30 35 35 34 35 36 35 34 34 35 34 34 34 35 35 35 32 33 33 33 31 31 32 34 34 34 35 35 35 35 35 34 34 34
37 38 38 37 39 42 43 45 47 48 47 47 47 48 47 48 50 51 49 47 43 38 34 34 33 32 32 32 30 33 33 34 33 34 34 35 35 34 34 42 38 32 33 33 33 33 34 35 33 32 32 33 34 34 34 34 35 36 35 36 35 34 34
40 40 40 40 42 43 43 45 46 47 46 47 46 46 46 48 49 49 48 48 43 38 35 34 34 33 33 33 33 33 37 34 31 31 32 31 34 34 33 40 39 35 35 34 33 33 33 33 33 33 33 33 33 32 31 33 33 34 34 35 35 39 38
40 41 41 42 43 43 42 43 46 46 46 44 43 43 46 47 48 47 46 43 41 38 34 32 34 33 33 33 32 35 35 33 30 31 32 30 32 32 32 32 40 35 34 34 33 33 34 34 34 34 34 34 33 32 31 32 33 33 33 33 34 34 34
39 41 42 43 42 43 43 42 44 45 45 45 45 46 47 47 46 45 43 40 38 37 36 33 34 34 34 34 33 32 28 31 31 32 31 30 29 29 27 26 34 34 33 33 33 33 33 33 34 33 34 34 34 36 33 33 32 33 31 32 32 32 32
39 42 43 43 44 42 43 43 43 44 47 47 49 48 48 46 44 42 40 40 40 38 37 37 34 34 34 35 34 33 32 37 35 29 25 24 25 27 28 28 31 35 33 33 33 33 33 34 34 33 33 32 32 32 32 32 31 30 29 30 29 30 30
38 40 43 44 44 45 44 43 44 45 47 50 49 48 47 45 43 40 39 37 36 38 37 35 35 34 34 35 35 35 34 36 32 34 27 27 29 29 30 31 33 35 32 32 32 32 32 32 33 32 32 32 32 32 33 31 30 30 30 29 30 30 30
38 39 41 44 45 45 45 45 46 47 49 47 46 45 44 42 38 37 36 36 36 34 35 36 36 35 35 35 34 35 33 32 32 33 33 30 30 30 32 34 34 32 32 32 32 32 32 32 32 32 32 32 32 32 32 31 30 31 31 30 30 30 30

ECMWFFLT1_sfc_dewp_006.txt.gz
Dewpoint
56 55 57 57 58 57 58 57 59 59 57 57 57 54 53 53 55 55 55 55 56 54 55 55 56 56 57 56 58 58 58 60 60 58 58 58 58 57 60 59 59 60 60 60 59 57 56 53 57 61 62 61 61 60 59 58 60 64 64 65 65 65 65
54 55 54 53 56 58 58 60 58 55 57 56 52 53 52 51 54 54 53 51 50 51 50 52 55 56 57 58 58 58 58 57 58 58 58 57 57 58 59 59 59 58 60 60 60 58 56 53 53 55 57 62 62 61 60 60 58 60 62 64 64 63 64
54 53 53 55 57 58 58 56 56 57 57 57 57 54 53 51 54 53 52 54 52 49 47 49 53 55 56 56 57 58 57 56 56 55 54 55 53 52 54 59 57 56 58 58 58 57 56 55 53 50 53 53 53 59 61 59 57 56 56 55 57 60 60
53 55 54 55 55 57 54 55 56 57 57 56 57 57 56 53 53 55 54 52 53 54 51 51 52 49 54 55 54 53 53 54 54 54 53 52 53 51 50 50 49 50 51 50 50 51 50 50 48 47 46 40 40 43 52 59 58 55 53 54 55 54 55
54 54 53 54 54 54 55 55 56 56 55 56 57 57 56 56 56 56 56 56 56 56 56 54 53 53 54 54 55 55 54 54 53 52 52 51 50 51 51 50 51 52 50 48 49 51 50 49 49 46 43 42 42 42 42 45 46 46 51 51 51 51 52
55 55 54 55 54 55 54 55 54 53 54 54 56 56 57 57 57 57 56 55 54 55 53 50 51 53 53 52 52 52 53 52 53 52 52 51 50 50 50 50 48 48 49 51 51 51 52 51 51 47 45 43 45 44 41 41 43 42 41 40 43 45 45
55 56 54 55 55 55 55 55 54 53 53 55 55 55 57 57 57 58 57 55 56 56 56 56 55 53 53 49 53 52 52 53 53 53 52 52 51 50 50 49 50 47 49 52 50 52 50 49 48 48 47 46 45 42 41 40 39 37 39 38 40 41 45
55 56 55 56 55 56 56 55 56 55 55 54 54 55 55 57 57 56 55 56 56 55 54 54 55 55 54 49 51 54 53 53 51 52 52 51 51 49 49 50 55 49 49 46 48 48 46 48 47 47 46 45 45 46 45 40 39 38 37 38 39 41 44
54 55 56 55 56 59 57 55 57 57 56 56 55 54 55 57 56 55 54 56 55 55 55 54 54 53 54 52 52 53 52 52 54 53 52 52 52 51 50 53 49 48 50 47 49 49 48 50 50 49 48 46 43 42 43 43 43 41 41 40 40 40 40
54 55 55 57 56 58 59 55 58 58 58 57 56 55 56 57 56 55 55 54 55 55 55 55 54 54 54 53 53 53 53 53 53 52 53 52 51 52 51 49 54 50 47 53 53 50 50 51 51 49 49 47 48 44 43 42 43 44 41 41 41 42 43
55 56 56 58 57 57 59 56 58 56 59 57 56 55 56 57 57 55 56 55 56 55 56 54 52 53 54 53 52 53 53 54 52 52 52 51 51 50 50 50 47 50 48 52 51 52 55 55 52 51 48 48 47 45 45 43 43 45 44 44 42 41 42
58 58 57 59 57 56 57 57 56 55 58 57 56 55 56 56 56 56 56 54 55 55 55 55 54 53 53 52 53 53 53 53 52 52 51 51 51 51 48 49 48 52 50 51 53 54 52 51 53 45 48 49 49 48 47 46 43 45 46 45 45 43 43
57 59 60 61 60 55 57 57 58 55 56 55 57 56 54 54 55 55 56 54 54 53 53 53 54 53 54 51 52 50 50 53 50 50 49 50 46 51 47 48 47 48 48 45 46 51 52 50 48 47 47 47 47 47 47 46 44 43 46 46 45 42 40
60 58 61 60 59 61 59 57 57 57 55 54 56 55 54 54 53 54 54 54 52 52 51 53 52 53 53 52 51 52 49 49 49 48 49 49 48 49 47 46 46 48 46 46 47 45 43 44 47 49 47 47 47 47 45 45 43 41 43 46 44 41 40
61 62 60 59 59 60 62 61 61 61 59 55 56 54 53 54 54 53 52 52 52 51 51 50 51 52 51 52 51 53 48 47 48 46 49 46 48 50 48 47 45 47 46 44 46 37 36 37 34 34 42 46 42 48 48 44 42 42 40 43 44 43 41
61 62 62 61 60 58 59 61 61 61 61 61 58 54 52 54 53 52 52 53 52 51 50 50 51 52 51 51 49 51 51 48 48 50 47 48 44 45 47 48 46 47 49 46 47 46 45 42 40 37 40 40 41 43 41 40 42 42 42 43 45 42 42
61 61 61 62 61 60 61 61 61 60 60 60 60 60 55 51 52 53 52 52 52 52 51 51 51 50 49 49 49 48 48 49 48 49 46 45 43 46 45 47 47 48 47 47 45 46 46 44 45 43 41 39 40 39 44 46 47 45 44 44 45 41 41
61 62 61 61 61 59 58 59 60 58 58 58 59 59 59 58 55 51 53 52 51 51 51 50 49 50 50 51 49 49 48 47 48 48 48 47 49 47 46 47 46 46 46 45 46 45 44 47 40 42 41 40 39 40 42 42 41 38 38 37 38 39 41
59 59 59 59 58 59 58 58 58 58 59 58 58 58 58 58 56 53 51 51 51 51 51 50 49 49 48 49 50 49 49 48 49 48 48 49 47 47 46 46 46 44 44 45 46 45 45 44 43 43 41 40 38 39 42 43 42 42 41 39 39 38 39
59 59 59 59 59 59 59 60 59 59 59 58 58 57 57 56 55 55 55 55 51 51 52 51 50 50 49 48 49 49 50 49 50 49 49 48 47 46 46 45 45 46 44 43 44 44 44 45 46 44 43 42 36 37 37 37 37 36 38 38 38 39 39
58 59 59 58 57 58 58 58 58 59 59 58 58 57 56 56 56 55 53 52 54 55 55 54 53 51 49 48 49 49 50 50 48 49 49 47 47 46 45 45 44 44 43 44 44 41 40 40 38 38 37 36 37 37 37 37 37 36 36 37 37 37 38
57 56 57 58 57 57 57 57 58 57 57 57 57 57 56 57 56 55 55 56 55 55 55 55 54 52 50 48 50 50 50 48 48 48 47 47 46 45 43 43 43 41 45 38 40 41 41 38 37 34 37 38 38 37 36 35 35 33 33 34 34 36 35
52 53 54 55 55 57 58 57 57 57 59 59 58 58 57 57 55 56 55 55 55 57 58 56 53 48 48 49 50 51 52 51 50 48 46 44 44 43 43 43 45 45 43 41 35 30 30 35 38 40 35 33 35 35 35 34 33 32 32 31 31 32 32
51 51 53 55 53 54 52 54 56 55 57 58 58 58 58 57 57 56 55 55 54 56 56 54 48 45 42 44 50 51 50 50 49 48 46 45 43 44 43 39 44 41 39 37 35 31 30 31 34 35 35 37 39 38 34 35 34 34 33 33 32 32 32
49 47 50 50 52 53 53 53 53 55 56 56 58 58 59 57 56 57 56 55 55 57 56 50 46 43 41 42 46 50 50 47 47 46 43 43 41 41 39 40 42 43 40 38 37 36 34 34 32 33 34 34 34 34 36 35 33 33 34 33 33 32 32
47 50 49 50 50 51 51 53 53 54 54 56 57 55 56 56 56 56 56 56 54 49 48 41 41 40 39 41 42 44 44 48 46 46 43 43 43 43 41 42 42 43 39 44 42 39 37 34 34 34 34 35 36 35 33 33 35 35 34 34 34 34 34
48 48 48 49 49 49 50 50 54 55 54 54 54 55 54 55 55 55 56 55 50 46 45 39 37 38 38 38 40 42 43 43 43 42 43 40 42 40 42 42 40 41 42 42 38 39 37 38 38 36 35 35 35 36 36 34 34 34 36 34 33 33 35
48 48 49 49 49 49 50 50 51 54 54 54 54 54 53 53 54 54 54 51 46 45 42 36 36 36 36 37 39 42 44 46 41 41 43 45 44 43 44 45 41 41 40 40 42 42 41 39 38 39 39 37 36 36 35 35 37 38 36 36 34 35 35
49 48 48 48 48 48 49 50 51 54 53 53 53 53 53 53 53 54 54 49 47 43 40 36 36 36 35 34 36 40 44 46 42 46 46 46 45 46 43 42 39 39 40 39 38 33 37 39 36 36 37 35 34 34 35 37 36 36 37 37 37 37 38
48 48 47 47 47 48 49 50 51 52 52 53 52 52 52 52 52 52 50 48 45 41 37 36 35 34 33 33 37 41 45 41 41 42 43 43 39 39 39 39 39 39 41 39 37 32 31 33 37 36 34 33 35 34 35 37 37 36 36 36 36 36 35
46 47 46 45 46 47 48 49 49 51 51 51 51 51 51 51 51 52 49 46 44 41 39 35 33 32 32 32 36 42 42 42 42 41 38 40 41 40 40 45 42 37 39 39 34 34 33 37 37 37 35 34 33 33 34 36 37 37 36 35 35 36 36
47 47 46 47 49 48 49 49 48 51 52 51 51 51 49 49 51 50 48 45 43 40 37 34 33 32 31 31 35 41 42 38 39 38 39 37 38 39 37 41 41 40 38 35 34 34 34 36 36 36 36 35 34 33 34 35 35 35 35 34 34 34 34
46 43 43 49 49 49 49 49 48 47 50 50 49 47 46 48 50 48 44 42 42 40 36 35 35 33 33 32 32 39 39 37 36 35 36 35 41 40 40 36 37 35 34 33 33 33 33 33 34 34 34 33 33 32 35 34 34 33 32 32 31 32 32
46 45 47 49 50 49 49 49 49 48 48 49 49 49 50 49 48 46 44 42 40 39 37 35 35 33 34 33 31 33 33 35 37 39 32 31 33 35 32 34 35 34 33 33 32 32 32 32 32 34 33 32 32 35 33 31 32 33 31 32 32 31 31
44 49 49 49 49 49 49 47 46 47 45 47 50 49 50 47 46 45 42 40 39 38 37 37 33 34 34 34 34 34 35 36 33 32 31 28 27 31 31 35 34 34 33 32 32 32 32 33 33 35 33 33 33 33 33 33 32 31 31 31 30 30 30
44 46 46 46 45 47 48 47 47 46 48 50 49 48 47 47 45 43 40 38 38 37 35 34 34 34 34 33 34 34 32 34 33 36 33 31 32 35 33 35 36 35 32 32 33 33 33 33 33 33 33 33 33 33 33 32 32 32 30 30 30 30 30
39 42 43 43 42 45 46 47 47 48 50 49 48 46 45 45 43 40 38 37 37 34 34 32 34 34 35 34 34 34 32 32 32 36 36 33 32 32 33 36 35 33 33 33 32 32 32 33 32 32 32 32 32 33 33 32 32 32 31 31 30 30 30

ECMWFFLT1_sfc_dewp_009.txt.gz
Dewpoint
52 51 52 54 55 56 55 53 54 53 50 51 50 49 50 51 48 47 47 50 52 53 55 54 55 56 56 57 57 57 58 59 58 57 56 56 56 55 58 57 57 59 59 58 57 55 52 51 52 57 60 61 59 59 59 56 57 60 58 56 61 64 64
51 53 54 54 54 54 54 54 51 48 48 48 48 48 47 49 53 50 47 46 49 52 53 52 54 55 55 55 55 55 53 53 56 57 57 56 56 55 56 56 57 57 57 57 57 56 54 51 51 52 54 60 60 60 60 59 58 58 55 54 58 60 62
52 51 52 53 54 55 52 51 50 49 50 51 51 51 51 51 50 49 50 48 48 52 53 52 53 51 51 51 53 53 52 52 52 52 53 52 50 50 55 57 55 55 55 55 56 56 55 53 50 50 46 47 47 54 59 59 59 58 57 56 56 55 56
49 51 51 53 52 50 50 50 50 51 50 51 52 51 49 50 51 52 49 48 51 54 51 48 49 50 51 50 51 51 50 49 49 49 49 50 49 48 47 49 50 50 49 49 47 49 48 47 46 46 44 42 41 42 47 56 59 58 56 56 56 55 56
50 51 51 52 50 50 51 51 52 50 51 52 50 50 51 52 52 52 53 51 52 51 50 51 52 52 53 51 50 50 50 50 50 49 47 46 47 47 46 47 48 48 47 47 49 48 48 46 46 45 45 43 44 42 43 45 43 44 49 52 53 53 53
50 50 50 51 50 51 52 52 50 49 51 50 51 50 50 51 52 50 50 49 48 48 48 50 50 49 49 50 50 49 49 49 49 48 47 47 48 46 46 47 45 46 48 48 48 47 48 48 47 45 45 43 42 44 43 43 42 40 41 42 43 46 47
50 50 51 51 51 52 52 51 50 50 50 50 51 50 51 53 53 52 52 52 52 53 52 51 49 48 49 49 49 50 50 50 50 49 48 47 46 46 46 43 43 45 46 46 47 47 46 46 45 45 44 45 45 43 43 42 42 40 41 41 41 44 46
51 51 51 52 51 52 52 51 50 50 51 51 51 52 53 53 52 51 51 51 50 49 51 50 52 51 51 50 52 51 50 49 50 50 48 47 46 44 45 48 47 45 45 44 48 47 47 47 47 46 45 43 43 44 43 42 43 42 42 42 42 42 43
52 52 52 53 51 52 52 51 51 51 51 52 52 52 53 53 51 51 52 51 51 50 50 50 49 49 48 48 49 48 48 51 48 49 49 49 47 47 47 48 45 46 45 48 47 47 47 48 48 47 46 45 42 41 43 43 43 43 44 42 43 43 42
52 51 51 52 52 52 52 52 51 52 52 52 52 52 54 52 51 50 51 50 50 50 49 51 51 49 49 50 50 48 48 51 51 50 49 48 48 48 47 48 48 44 45 49 46 48 49 48 48 47 47 44 45 42 41 41 42 42 43 43 42 43 42
51 52 52 51 53 53 51 53 53 53 52 52 51 53 54 52 51 55 51 50 50 51 50 51 49 50 51 49 50 51 51 48 48 49 50 49 47 48 47 45 47 43 47 47 46 47 49 48 47 48 47 46 46 43 43 41 42 44 44 44 44 42 40
52 52 53 51 53 52 50 52 53 53 53 52 51 53 53 52 52 52 51 51 51 50 51 50 49 49 49 48 49 49 50 49 48 49 48 48 48 46 45 46 47 48 48 48 49 50 49 48 49 44 45 45 46 44 42 43 40 44 46 42 44 43 40
53 51 55 52 53 51 50 51 51 54 53 52 51 53 53 52 52 53 52 51 51 51 50 50 49 48 49 47 49 48 48 49 49 47 45 46 47 48 43 44 44 43 44 43 44 47 47 49 45 42 44 44 44 45 43 42 41 41 45 43 42 41 41
55 55 56 52 52 52 51 51 50 54 54 52 51 52 53 53 52 53 52 52 51 51 50 50 50 48 50 47 49 47 47 49 48 47 46 44 45 47 45 44 45 45 44 43 45 43 42 43 46 46 46 45 44 45 43 41 40 41 42 46 44 42 43
56 55 54 54 55 56 56 56 56 53 53 53 52 52 53 53 53 53 53 52 51 51 50 50 50 49 50 47 47 50 47 47 48 45 45 43 44 47 45 44 44 45 44 42 44 40 41 41 37 37 41 45 43 44 47 43 40 39 38 43 43 44 43
58 57 56 55 56 57 57 56 55 55 55 55 55 52 53 53 53 52 53 52 52 51 50 50 49 50 49 48 45 49 47 45 46 46 45 43 44 44 42 41 44 45 46 40 43 44 45 43 41 39 41 41 40 40 41 42 41 40 41 42 44 43 43
57 57 57 57 57 56 56 55 54 54 54 56 57 57 53 53 53 52 52 53 52 51 50 50 49 50 49 50 47 48 47 44 45 48 46 44 45 44 43 44 44 46 45 43 44 44 45 44 43 42 40 40 39 40 42 42 41 40 42 39 42 38 39
58 58 57 56 56 56 56 56 55 55 56 57 58 58 57 55 53 53 52 52 52 52 51 50 49 49 49 50 48 48 47 45 46 47 45 44 47 45 44 43 44 45 44 43 44 43 43 42 42 43 41 41 39 41 41 42 41 40 39 38 39 40 40
58 57 56 56 56 56 56 55 55 56 56 56 56 56 57 56 55 54 54 53 52 52 51 50 50 49 49 49 49 48 47 46 47 47 45 45 45 46 44 44 45 45 43 42 42 44 42 43 44 41 39 37 35 37 37 37 37 37 36 36 37 38 38
56 56 57 57 57 57 57 56 56 56 57 57 57 56 56 56 56 56 55 55 53 52 52 51 50 49 49 49 49 48 47 46 46 46 46 46 45 43 44 45 44 44 43 43 43 42 43 40 41 38 38 36 36 36 36 36 35 34 34 33 34 36 36
55 56 56 56 56 56 57 57 56 56 56 55 56 56 56 55 56 55 56 56 56 53 52 51 50 50 49 48 49 48 48 46 47 46 47 46 45 43 43 44 43 44 43 43 41 40 38 36 37 32 35 38 37 36 35 35 33 31 31 31 30 30 32
52 55 56 55 55 55 55 55 56 56 56 55 56 56 55 55 55 55 56 57 56 54 53 53 52 51 50 48 48 48 48 47 47 47 47 45 45 45 43 43 42 44 47 44 42 41 38 39 33 22 32 35 38 34 34 34 34 31 31 31 30 32 31
50 51 52 53 54 54 54 54 54 55 55 55 55 54 54 53 54 55 55 55 55 55 54 54 52 49 49 49 49 49 49 48 47 47 46 44 43 42 42 42 48 48 45 41 39 37 36 37 40 33 31 30 31 32 32 31 31 33 33 32 31 32 31
51 50 50 51 51 54 55 56 55 55 55 55 56 55 55 54 54 54 54 54 54 55 55 55 49 46 45 46 49 50 49 48 48 46 45 42 40 39 40 42 43 44 41 40 37 36 35 34 33 35 36 37 38 33 32 32 33 32 32 33 33 33 32
45 45 47 51 51 52 53 54 54 54 55 56 56 55 55 54 54 54 54 54 54 54 54 51 47 46 44 43 46 50 49 48 48 46 43 42 40 39 38 40 42 41 36 33 32 32 33 33 33 34 34 34 34 36 37 34 32 31 32 31 32 32 33
41 42 44 45 45 45 47 49 50 51 53 55 55 55 56 55 54 54 53 53 52 50 53 50 46 45 44 43 42 47 48 48 46 44 42 41 40 39 38 40 42 42 39 44 43 35 33 34 36 34 34 34 35 35 33 34 36 36 32 32 32 32 32
42 43 44 43 43 43 44 44 48 50 51 52 53 53 54 54 53 51 49 47 44 43 42 39 39 41 42 40 42 45 47 45 43 42 42 41 41 40 41 40 40 42 40 41 39 38 38 36 35 35 34 33 33 35 36 36 35 35 36 33 31 31 32
41 42 41 42 41 41 43 44 46 47 48 48 48 51 51 50 50 50 49 45 42 40 39 37 37 38 39 39 40 42 43 43 41 43 43 44 42 41 43 43 40 40 42 43 41 39 38 37 37 38 36 35 35 35 35 36 37 36 37 36 34 34 34
41 41 41 42 42 42 43 43 43 45 47 47 48 48 48 49 48 48 48 45 41 37 36 36 37 38 38 38 40 43 43 42 42 43 43 42 42 42 41 39 38 39 40 39 40 36 38 38 37 36 36 36 36 36 36 38 38 38 39 38 38 37 37
41 41 41 41 40 41 42 43 42 45 45 46 46 46 45 47 48 48 46 44 40 36 36 35 36 37 37 38 40 41 40 40 39 38 40 42 40 40 40 40 40 39 39 38 36 34 36 36 35 35 35 35 35 35 35 37 38 37 37 36 36 36 36
41 40 40 39 40 41 42 43 42 44 44 45 45 45 47 45 47 48 46 43 39 36 35 34 35 36 37 38 40 40 40 40 39 39 40 41 41 41 42 45 45 40 38 36 34 34 36 38 36 35 34 34 33 34 34 36 37 37 36 35 35 34 34
42 41 40 40 41 41 41 41 42 43 43 44 44 45 44 47 46 44 44 42 42 37 33 33 34 34 36 37 39 38 37 37 37 37 37 37 40 41 38 39 40 38 38 35 33 33 33 34 33 33 32 31 31 30 31 33 33 33 32 32 31 32 32
39 38 39 41 43 43 42 42 40 40 42 43 45 44 43 47 44 41 41 41 40 36 31 31 33 33 35 37 37 36 37 36 38 37 33 30 35 37 36 35 35 34 33 33 33 33 33 33 32 31 31 29 29 29 31 32 34 32 31 31 31 32 32
39 39 40 41 43 43 42 41 42 42 41 42 43 45 46 44 42 40 40 39 37 35 33 29 33 32 33 34 35 36 35 31 31 34 32 30 30 35 34 33 34 34 33 33 33 32 32 32 33 32 31 30 30 33 33 31 32 34 32 32 33 32 32
36 41 43 43 43 42 43 42 42 41 41 41 43 45 43 42 41 39 38 38 37 36 37 34 29 33 33 33 33 35 35 33 33 33 33 32 33 35 34 34 33 34 33 33 32 32 32 32 32 34 33 33 33 33 33 34 33 32 31 31 31 31 31
39 43 42 42 42 42 42 42 42 41 41 43 44 44 43 40 37 37 36 36 35 34 33 33 33 32 34 33 32 32 34 34 34 37 34 33 33 34 37 34 35 34 32 32 32 32 32 33 33 32 33 33 33 33 34 32 32 32 31 31 31 31 31
37 38 39 41 40 40 41 42 43 43 43 44 43 43 41 39 37 35 34 33 33 32 31 31 34 34 33 34 33 33 33 33 34 36 34 32 34 36 35 35 35 33 33 32 32 32 33 33 33 33 33 33 33 33 32 32 31 31 31 31 31 31 31

ECMWFFLT1_sfc_dewp_012.txt.gz
Dewpoint
50 51 53 53 53 55 53 51 50 49 49 49 48 49 50 51 50 51 53 54 55 55 56 55 55 56 57 57 56 57 58 57 56 56 55 55 54 55 57 55 56 57 57 55 53 52 49 48 50 53 56 58 57 57 58 57 55 56 57 57 55 56 58
52 53 54 54 54 54 52 49 47 47 48 48 48 49 49 51 52 49 51 52 53 54 55 54 54 55 54 53 53 53 53 54 56 55 55 54 53 54 55 55 55 55 55 56 56 54 51 49 49 50 49 53 56 58 59 60 59 58 58 55 53 55 53
53 53 53 53 53 51 48 47 47 47 48 49 50 49 48 49 49 50 50 52 52 53 53 50 50 51 51 52 52 51 51 51 52 52 51 49 50 51 54 55 53 53 54 52 51 53 53 51 49 49 46 43 43 47 53 56 58 58 58 58 56 54 54
53 53 53 52 52 49 47 48 48 49 49 49 49 49 50 51 51 52 50 51 52 53 51 49 49 50 50 50 50 49 48 48 48 48 48 48 48 49 50 51 51 51 50 46 45 48 47 44 44 44 45 44 42 42 45 46 48 49 50 53 55 55 55
52 52 52 52 51 48 48 49 49 50 49 48 48 49 49 50 50 50 51 49 50 49 50 51 51 50 50 49 49 49 49 49 48 48 46 45 45 46 47 47 47 47 47 47 47 48 46 44 44 43 43 43 43 43 43 45 46 43 42 43 45 46 46
52 52 53 52 50 49 49 49 49 48 48 48 48 48 48 48 49 47 48 48 48 50 50 49 49 49 49 48 48 48 48 47 46 46 45 45 45 44 44 45 46 45 46 47 48 47 47 47 45 42 43 43 41 43 44 43 42 42 42 42 42 44 43
51 52 52 51 50 50 50 49 48 48 47 47 48 47 49 50 49 50 50 49 49 49 49 48 49 49 49 49 49 49 49 48 48 47 46 46 45 45 43 43 43 43 45 47 46 46 45 45 44 43 43 44 44 44 44 42 42 42 43 43 42 41 42
51 52 51 51 51 51 50 48 49 49 48 49 48 48 52 50 50 49 49 48 48 49 50 50 50 50 50 51 50 49 49 49 49 48 45 44 45 45 45 43 44 44 45 46 46 46 46 46 45 44 43 41 41 41 42 43 43 43 43 43 43 40 40
52 52 52 52 51 52 50 49 49 49 49 49 49 51 51 50 49 50 49 48 48 48 49 49 49 49 49 48 48 48 48 50 47 47 46 44 45 46 45 44 43 43 45 45 45 45 46 46 46 46 45 43 39 38 41 40 41 42 44 42 43 42 40
52 51 51 51 52 52 51 49 49 49 50 50 50 52 51 49 49 49 49 48 48 48 49 48 48 48 48 48 47 47 48 49 49 47 47 46 47 46 46 44 42 44 45 46 45 47 48 46 46 45 45 43 43 41 39 38 39 40 43 43 40 42 40
52 51 51 51 52 52 51 50 50 50 50 50 51 52 50 49 49 53 48 48 48 49 49 49 48 48 48 47 47 48 49 49 49 48 48 47 45 46 47 46 45 43 46 44 44 46 47 46 46 45 45 45 44 41 40 38 39 41 42 43 43 40 40
52 51 51 51 52 52 51 51 50 51 51 51 52 52 49 49 50 49 48 48 48 48 49 48 48 48 47 47 48 47 47 46 46 46 46 45 46 46 45 45 46 44 45 43 45 46 47 47 46 44 45 45 46 44 42 40 37 40 44 40 42 44 41
52 51 51 51 52 52 51 51 51 51 51 51 51 51 49 49 50 49 49 49 49 49 48 48 48 48 47 48 48 47 46 46 47 46 45 47 47 45 45 43 43 42 43 43 43 43 44 44 46 43 43 44 44 44 43 41 38 39 43 41 42 42 42
52 51 51 51 52 52 51 52 51 51 51 50 52 51 49 49 50 49 49 50 49 49 49 48 47 48 47 46 47 47 47 47 47 45 45 44 45 43 44 44 44 43 44 42 42 42 43 42 41 43 45 44 43 43 43 41 39 40 40 43 44 42 43
51 51 51 51 51 51 51 52 52 52 51 50 52 51 50 50 50 50 49 49 49 49 49 49 49 48 48 46 46 47 46 48 46 46 44 42 44 46 45 43 43 45 43 42 43 41 43 42 40 38 40 42 40 41 42 40 39 40 38 40 42 43 41
52 51 51 51 52 52 52 52 53 52 51 50 52 52 51 51 51 50 49 49 49 49 49 49 49 47 48 46 46 47 47 46 47 45 44 43 44 44 42 43 42 44 44 40 43 44 44 43 41 40 40 41 40 41 42 41 39 38 39 38 42 37 38
56 55 52 53 54 53 53 53 53 52 51 52 52 52 52 51 51 51 50 50 49 49 49 49 49 48 48 48 45 46 48 45 46 46 45 44 44 43 42 41 42 43 44 40 42 43 43 42 42 42 40 41 39 40 41 40 40 38 39 37 39 37 38
56 56 56 56 54 54 54 54 54 53 54 54 53 53 53 53 52 52 52 51 50 50 49 49 48 48 48 48 47 46 47 46 45 46 46 45 46 43 43 42 43 45 43 41 42 42 42 42 42 40 37 37 37 39 39 38 38 37 34 33 35 39 37
56 56 56 56 55 55 55 54 54 55 55 54 54 54 54 53 53 52 52 52 51 51 50 49 49 48 48 48 48 47 47 46 45 44 46 45 45 44 43 43 44 45 43 41 41 43 42 42 39 35 35 35 35 37 36 35 36 34 32 31 32 32 32
54 55 56 56 56 56 55 55 55 54 54 55 55 55 55 54 54 53 53 53 53 53 52 51 50 49 48 48 48 48 47 47 45 45 46 45 45 45 44 44 44 45 43 42 42 42 41 40 39 37 39 37 35 34 34 34 32 29 30 29 31 31 31
54 55 54 55 56 55 55 55 54 54 55 54 53 54 54 54 54 54 54 54 54 53 53 52 51 50 49 49 48 48 48 47 46 45 46 45 45 45 44 44 44 44 43 43 42 42 38 35 35 31 36 37 37 33 33 34 31 31 30 31 30 30 32
54 55 54 55 54 54 55 55 55 54 54 55 54 54 54 53 53 53 52 53 53 53 53 53 53 52 51 50 49 48 48 47 46 45 46 46 45 43 43 43 42 43 46 46 44 43 40 37 31 24 31 38 37 31 32 34 34 31 31 31 30 32 32
53 54 53 53 53 54 54 54 54 54 54 54 54 53 52 52 51 51 52 52 53 52 52 52 52 49 49 52 52 50 49 48 47 46 46 46 45 43 42 42 44 48 48 46 42 38 37 39 40 34 29 32 35 30 30 29 30 32 33 30 30 31 30
51 52 53 52 52 53 53 53 53 54 54 53 53 51 52 52 51 51 51 50 50 52 53 54 49 46 44 46 50 49 49 49 48 47 46 45 43 42 42 42 45 46 45 42 38 35 35 37 37 37 38 38 37 33 32 29 31 32 32 32 32 31 31
49 49 49 50 51 51 52 53 53 52 51 51 51 51 51 51 51 50 50 50 50 51 51 51 48 46 44 43 46 49 49 49 48 47 46 44 43 41 40 42 42 42 37 34 31 32 35 36 36 36 36 36 37 36 37 32 32 31 32 30 30 31 31
44 43 45 47 47 47 48 49 50 50 50 50 51 51 52 51 51 51 50 51 50 50 50 41 42 45 45 43 42 46 49 49 48 47 46 44 42 40 40 41 41 42 39 42 40 31 31 33 36 36 35 35 35 35 34 34 35 34 31 30 30 31 31
42 42 42 42 42 43 44 46 46 47 48 48 50 51 50 51 51 50 49 49 47 42 41 40 39 41 43 42 42 43 49 48 47 46 45 44 43 40 40 40 40 42 42 42 39 35 34 35 36 35 34 33 33 36 36 35 34 35 36 33 31 30 32
42 42 42 41 40 41 41 42 43 43 46 47 49 50 50 50 50 49 46 43 41 39 38 38 39 40 41 41 40 41 45 46 45 44 44 43 41 42 41 43 41 42 42 42 42 39 38 37 36 36 34 34 33 34 35 36 36 35 36 35 33 33 34
40 40 40 40 40 39 40 41 40 40 44 44 45 46 47 46 46 45 44 41 39 35 36 37 38 38 39 39 41 43 42 43 42 41 42 42 44 44 42 43 41 41 42 43 41 38 39 38 36 36 36 35 34 34 36 39 38 38 38 36 35 35 35
40 40 40 39 38 38 38 39 39 42 42 42 43 43 43 45 44 45 43 40 38 35 34 36 37 38 38 38 40 41 41 41 40 39 39 39 39 40 41 40 40 39 39 36 36 36 36 37 37 36 35 34 34 34 34 36 37 36 36 35 35 34 34
40 40 40 39 38 38 39 40 40 42 40 40 41 43 43 42 44 44 43 40 38 36 33 35 37 38 38 38 39 38 38 39 38 38 39 40 40 41 42 47 44 38 36 36 35 35 36 36 33 32 32 31 30 30 30 32 35 35 35 35 35 34 34
40 40 39 39 39 39 40 40 38 40 41 41 42 41 42 42 42 42 41 39 42 35 33 34 37 37 37 38 39 38 38 37 36 35 35 36 37 36 35 38 41 38 35 35 33 33 33 33 31 31 31 30 29 29 29 29 31 31 31 31 31 32 32
40 40 39 39 39 40 40 40 39 38 39 40 40 40 41 41 40 39 39 38 38 34 32 32 35 37 37 37 37 38 37 35 33 31 32 35 36 34 33 33 35 33 33 33 33 32 33 33 31 32 32 29 28 28 29 30 32 31 30 31 31 31 32
38 39 39 39 40 40 40 40 39 40 39 38 39 40 40 39 39 37 37 36 35 32 32 31 34 36 36 37 36 36 34 34 32 30 31 34 34 33 32 32 33 34 33 33 33 33 33 33 34 33 31 29 30 32 33 30 32 34 31 32 32 32 32
38 39 40 40 39 39 40 39 39 39 39 39 38 39 38 38 37 36 36 35 34 33 34 34 32 35 36 36 35 33 31 33 33 33 34 34 34 33 32 32 33 34 33 33 33 33 33 33 33 36 32 32 33 33 32 33 32 31 31 31 30 31 31
38 40 39 40 39 39 39 40 40 39 39 38 39 38 37 37 36 35 34 33 32 32 31 33 34 33 34 34 34 33 33 34 35 34 31 33 35 35 34 33 35 35 34 33 32 32 33 32 33 32 33 33 33 33 33 31 30 31 29 29 30 30 30
36 36 36 37 39 38 38 39 39 39 38 39 39 38 36 36 35 34 33 31 31 30 30 30 33 34 32 33 33 33 34 34 34 35 35 35 35 34 34 34 36 34 33 32 32 32 33 33 33 33 33 33 33 34 32 30 30 30 29 30 29 30 30

ECMWFFLT1_sfc_dewp_015.txt.gz
Dewpoint
50 50 51 51 52 53 50 49 48 48 48 49 50 51 52 54 54 53 54 55 55 56 57 55 55 56 56 57 57 58 58 57 56 56 55 55 55 55 57 56 56 57 56 55 53 51 48 47 49 51 53 52 56 57 57 58 58 57 57 56 56 56 58
51 52 53 53 52 50 48 47 47 47 48 49 49 50 51 53 54 53 53 54 54 55 56 55 54 54 53 53 54 54 54 55 55 54 55 53 53 54 55 55 55 55 55 55 55 52 49 46 47 47 46 48 51 49 50 50 50 53 55 56 57 56 56
53 53 52 51 50 47 46 46 46 47 48 47 48 49 49 51 52 53 53 52 52 53 53 51 52 52 51 51 51 52 52 51 50 52 53 51 52 53 55 55 54 53 50 47 49 52 51 49 48 45 45 42 43 45 48 46 46 46 47 47 46 46 48
52 52 52 50 48 46 46 46 46 47 47 47 48 48 49 50 51 53 52 51 52 54 52 50 50 50 49 49 49 49 48 48 48 48 48 49 50 51 51 52 52 51 49 45 44 48 47 43 42 43 44 45 42 41 43 46 46 43 43 44 43 42 43
52 52 52 51 49 46 46 46 47 47 46 46 47 48 48 49 51 50 51 49 50 49 50 50 50 50 49 49 48 48 47 47 48 47 46 46 47 47 46 47 47 47 47 46 46 46 44 43 43 41 42 42 42 42 43 45 46 43 42 41 41 41 41
52 52 52 51 49 47 47 47 46 45 46 46 46 47 47 47 49 47 48 48 49 50 50 49 48 48 48 48 47 47 46 46 45 45 44 44 45 44 44 44 45 46 46 46 47 46 46 45 43 41 42 42 40 42 44 43 42 43 43 41 40 40 41
52 52 52 52 49 48 48 48 47 46 46 45 46 46 47 47 47 48 48 48 48 48 48 48 48 48 48 47 47 47 46 46 45 45 45 45 44 43 43 43 44 45 45 45 45 45 44 43 42 41 41 41 41 42 43 43 43 40 41 43 41 40 41
52 52 52 52 50 48 49 48 47 47 46 46 47 46 50 47 48 48 48 48 48 48 48 49 50 49 49 49 48 48 48 46 45 46 44 44 44 43 43 44 45 44 44 44 44 45 45 44 44 42 40 37 37 38 41 41 42 42 42 42 43 40 41
53 53 53 52 51 50 49 48 48 47 47 47 46 48 48 48 48 48 48 47 48 48 48 49 49 49 47 47 46 46 46 47 44 44 44 44 44 43 43 43 44 43 43 44 45 44 44 45 45 44 43 39 36 35 38 39 40 40 43 40 42 42 40
53 53 53 51 51 51 50 49 49 48 48 48 48 50 48 47 48 47 47 47 47 48 48 48 48 47 47 47 46 46 46 45 45 44 44 44 44 44 43 43 43 44 44 44 45 46 46 45 45 44 43 42 40 38 36 35 36 39 42 43 38 39 41
53 53 52 51 51 51 50 49 49 49 48 48 49 50 48 47 47 51 47 47 47 47 48 47 47 47 46 46 46 46 46 46 46 46 46 45 44 45 46 44 44 44 46 45 45 46 46 45 44 44 44 44 42 39 38 36 37 39 41 42 42 40 41
54 54 54 52 52 51 50 49 49 49 49 49 50 50 47 47 48 47 47 46 46 47 47 47 47 47 46 46 46 47 46 46 46 45 45 44 44 44 44 44 43 43 43 43 44 44 45 46 44 43 44 44 44 42 41 39 35 39 42 39 41 43 42
54 54 52 52 51 51 50 50 50 50 50 50 49 50 48 48 49 47 47 47 47 47 47 46 47 47 46 47 47 46 45 45 45 44 44 45 46 44 43 42 42 41 42 41 41 43 42 43 44 44 44 44 44 42 42 39 37 39 42 41 42 42 42
55 54 52 52 51 51 51 51 50 50 51 50 50 50 49 48 49 48 47 48 47 48 47 47 47 46 46 46 46 46 45 45 45 43 45 43 44 43 43 41 41 42 42 40 41 43 43 41 40 42 43 41 41 42 42 40 37 38 40 42 43 41 40
55 53 51 51 51 51 51 51 50 51 50 50 51 51 49 48 49 48 47 47 47 47 47 47 47 46 46 47 46 46 46 46 44 44 43 43 43 44 43 43 43 43 42 41 42 42 41 39 38 39 40 40 40 41 41 38 38 37 36 39 39 38 35
53 52 51 51 51 51 51 51 51 50 50 50 51 51 50 49 49 48 47 47 47 47 48 47 47 47 46 46 47 46 47 46 45 44 43 42 43 44 42 43 42 43 43 42 42 42 41 40 40 39 40 40 39 40 40 38 34 34 36 35 39 36 34
54 53 53 53 52 52 52 52 52 52 51 51 50 51 51 50 50 49 48 48 48 48 48 48 47 46 46 45 46 46 46 46 46 45 44 43 43 44 42 40 42 43 43 41 42 42 42 42 40 39 38 39 38 38 39 38 37 34 36 30 33 37 33
54 53 53 54 54 54 54 53 53 53 52 51 51 52 52 51 50 50 50 49 48 48 48 48 48 47 46 46 46 46 46 45 46 46 45 44 45 43 43 41 41 43 42 41 42 41 42 41 39 37 36 37 37 39 38 37 36 33 29 27 31 36 35
54 54 54 54 54 54 54 54 54 54 54 54 54 54 53 54 54 54 53 51 50 49 49 49 48 48 47 47 47 46 47 46 45 45 46 45 45 44 42 42 42 44 42 41 41 42 42 40 36 35 34 35 36 36 35 35 34 32 29 29 30 31 33
54 54 54 54 54 55 54 53 54 54 54 54 54 54 54 54 54 54 53 52 52 51 50 50 49 49 48 48 48 47 46 47 47 45 45 46 45 44 43 42 43 44 42 41 41 42 42 39 38 36 37 35 33 32 33 32 31 31 31 30 31 31 32
54 55 55 55 54 54 54 54 53 53 54 53 53 54 54 54 55 54 54 53 53 53 52 51 50 50 49 49 48 47 47 47 47 46 46 46 45 45 44 43 43 44 43 42 41 42 40 37 36 35 36 35 34 31 31 33 32 31 31 32 30 29 32
53 54 55 55 55 54 54 54 54 54 54 54 55 55 54 53 52 52 52 52 53 53 53 52 52 51 50 50 49 48 48 48 48 47 46 46 45 45 45 44 43 44 46 46 45 44 41 39 34 30 34 35 33 32 33 33 34 32 32 32 31 32 31
53 53 53 54 54 54 54 54 54 54 54 54 54 54 54 53 52 51 52 52 53 52 52 52 52 50 49 51 50 50 49 48 48 47 47 47 46 46 45 45 46 48 47 47 44 41 39 38 38 34 30 34 33 30 31 31 32 32 32 30 29 30 30
51 52 52 53 53 53 53 53 54 53 53 53 53 52 52 52 52 51 51 52 52 53 53 53 49 47 45 46 50 50 50 50 49 48 47 47 47 47 46 44 43 47 47 46 43 39 38 37 37 37 37 37 36 32 31 30 30 32 34 31 31 30 29
50 51 51 51 51 52 51 52 52 52 53 52 50 50 51 52 52 52 51 51 51 52 52 50 47 46 45 43 45 50 50 50 49 48 48 47 46 46 45 43 44 45 43 41 37 34 35 36 35 36 36 36 36 37 37 34 34 32 31 30 30 30 30
50 50 51 51 50 50 51 51 51 51 52 52 51 51 51 51 51 50 50 51 51 51 50 44 41 43 44 43 43 45 49 49 48 48 48 47 46 45 43 43 43 42 41 43 40 31 31 33 36 36 36 36 36 36 34 34 35 36 33 30 30 30 30
46 47 47 47 48 49 50 51 50 51 50 49 50 51 51 51 50 50 51 50 49 43 42 40 38 39 41 42 41 42 46 46 46 46 46 46 45 43 42 41 41 40 40 40 35 33 34 33 35 35 34 33 34 37 37 36 35 35 37 33 30 29 32
41 41 42 43 43 43 44 43 43 45 47 48 49 49 49 49 49 50 49 47 43 38 37 38 37 39 40 41 41 41 45 43 43 42 43 43 43 41 42 42 40 39 40 41 41 36 36 37 37 38 37 37 36 36 37 36 36 36 36 34 33 32 33
40 40 40 39 39 39 39 39 38 40 42 41 42 43 43 44 45 44 43 40 39 38 35 37 38 39 39 39 41 43 41 41 41 40 40 41 42 42 42 42 42 41 42 41 38 37 39 40 37 37 35 34 34 34 35 38 37 38 37 34 34 33 33
39 39 39 38 38 37 37 37 38 40 39 40 41 41 42 43 43 42 41 39 37 35 34 36 38 38 39 39 40 41 41 40 39 39 39 39 40 41 40 39 40 38 36 36 37 36 37 37 35 34 32 31 32 31 31 33 36 36 36 35 34 34 34
39 40 39 38 37 36 37 38 38 40 38 38 40 40 41 40 42 41 41 40 37 35 34 36 38 38 38 39 40 40 39 38 37 38 37 36 36 37 42 44 39 35 34 35 35 35 35 35 32 32 31 31 30 29 30 31 33 34 35 35 34 34 34
40 40 39 39 38 37 37 39 37 38 38 39 39 39 40 40 40 39 38 38 42 35 33 37 37 37 37 38 39 39 39 37 36 35 35 34 33 33 34 38 39 36 34 35 34 34 33 33 32 31 31 30 30 29 30 30 31 31 30 31 30 32 32
41 40 39 39 39 39 39 38 38 37 37 39 40 38 39 38 38 36 35 35 34 33 33 34 36 37 37 37 38 38 37 35 34 34 34 33 32 32 32 32 35 33 33 33 33 33 34 33 32 32 32 30 29 29 30 31 34 31 30 30 29 29 32
41 41 40 39 40 40 40 38 37 37 38 38 38 38 37 36 36 34 34 33 32 32 34 33 35 36 37 37 37 36 34 33 33 35 35 34 32 31 31 32 32 34 33 33 33 33 34 34 34 33 31 30 31 33 33 30 31 35 30 31 31 31 31
40 40 40 40 39 39 40 39 38 38 37 37 37 36 35 35 35 33 33 33 32 31 35 37 34 36 35 35 35 35 33 33 34 34 34 32 31 31 31 31 32 33 33 33 33 33 33 34 35 36 32 32 32 33 32 33 31 30 30 30 29 29 29
37 40 39 39 38 37 38 38 38 37 37 37 37 36 35 35 34 33 31 30 29 30 30 33 36 35 35 34 35 35 35 34 35 36 33 32 31 32 33 33 35 35 33 33 33 33 33 33 35 32 33 33 33 33 33 32 32 29 28 28 30 29 28
38 38 38 39 38 38 37 37 37 38 37 38 37 36 34 34 34 33 31 29 29 28 29 30 34 35 34 34 34 34 34 34 35 35 35 33 32 33 33 34 35 34 33 33 33 33 33 33 31 33 33 33 33 34 32 30 28 29 29 28 28 28 28

ECMWFFLT1_sfc_dewp_021.txt.gz
Dewpoint
59 57 58 58 57 55 55 56 57 58 59 61 63 63 64 64 63 63 63 63 62 62 61 61 61 61 62 61 62 63 62 62 62 59 60 60 59 59 61 60 61 61 60 60 56 54 52 48 45 47 49 50 50 50 49 48 49 50 51 49 46 47 48
58 58 57 54 53 55 56 56 57 56 58 59 60 61 61 62 63 63 63 63 62 62 62 61 62 62 62 62 62 61 61 62 62 61 60 59 60 59 60 59 59 58 59 60 59 56 51 49 46 44 44 47 49 49 49 48 46 48 48 47 43 42 46
58 57 55 53 53 55 55 56 57 58 58 59 59 59 60 59 61 63 63 63 61 61 61 61 62 62 62 62 62 62 62 62 61 61 61 60 60 61 60 60 59 58 58 57 57 54 52 51 47 44 45 46 44 45 49 46 45 44 44 45 45 42 44
59 57 55 54 52 54 54 54 56 57 57 58 58 59 59 60 61 61 62 62 62 61 60 60 62 60 60 61 61 62 62 61 60 60 60 60 60 59 59 59 58 58 56 55 54 53 51 49 46 45 45 42 43 45 46 47 43 40 39 43 43 43 44
59 57 56 54 53 53 54 53 54 56 56 57 58 58 59 59 60 60 59 60 59 60 60 60 60 59 59 58 58 59 59 60 61 60 60 59 60 59 59 57 54 55 54 52 52 52 51 48 47 45 42 42 41 40 43 46 41 40 39 38 38 40 41
59 58 57 56 55 54 53 53 54 54 55 56 57 57 58 58 58 58 58 58 58 58 58 57 58 56 56 55 55 56 57 58 58 59 57 58 58 54 52 53 49 49 49 51 50 48 49 47 46 43 42 42 43 43 41 43 39 38 37 37 36 37 36
59 58 57 55 55 55 54 54 53 54 55 57 57 57 56 56 57 58 58 57 56 56 56 56 56 54 55 51 55 55 55 55 55 56 55 55 55 55 54 50 51 49 50 51 50 48 46 44 40 42 44 45 45 39 38 37 39 37 37 36 36 36 37
58 57 57 57 56 55 54 55 55 55 54 55 54 55 55 56 57 57 57 56 55 56 55 55 54 54 55 52 52 55 53 53 54 54 53 54 53 52 54 51 51 50 49 47 46 43 41 43 43 45 43 43 44 42 39 37 36 38 38 36 35 33 35
58 58 56 55 55 56 56 55 55 55 54 54 54 55 55 55 56 56 55 55 55 55 54 54 53 52 55 53 52 53 51 51 54 53 52 53 54 54 53 52 48 47 49 46 45 46 43 45 44 46 44 40 40 40 41 41 39 36 38 37 35 32 29
58 58 57 57 57 57 57 55 54 55 56 55 55 56 55 55 55 56 55 55 55 55 54 53 53 53 53 53 52 52 51 52 52 51 52 51 52 52 51 52 48 46 47 50 48 48 49 50 48 46 37 37 38 37 38 38 40 40 37 35 31 31 28
58 57 57 58 57 56 56 55 54 54 54 55 55 55 55 55 56 55 55 54 55 55 54 53 51 51 52 51 52 50 51 52 51 51 51 49 51 51 51 49 48 46 50 49 49 51 50 50 47 45 42 42 40 35 36 35 38 43 41 39 32 27 27
57 57 58 58 57 57 56 55 54 55 55 55 54 54 54 54 54 54 55 54 54 54 54 53 52 51 51 50 51 49 51 50 48 49 51 51 52 51 50 50 51 48 51 51 51 50 50 49 47 45 44 44 43 43 41 38 39 41 43 40 35 27 28
56 57 57 57 58 56 55 54 54 55 55 54 55 54 53 53 53 53 53 53 53 53 52 52 52 51 52 52 50 48 50 49 46 47 48 49 46 49 49 48 48 47 48 46 48 49 48 50 50 44 44 44 43 45 42 39 39 40 44 39 33 27 30
58 57 58 58 57 57 55 54 54 55 54 54 55 54 52 52 51 51 51 51 51 52 52 52 52 52 51 51 51 51 49 47 45 46 47 49 47 47 44 44 45 47 49 46 47 48 46 45 47 46 45 42 41 43 40 41 38 40 42 40 34 27 33
57 57 58 57 57 55 55 54 55 54 55 54 54 53 52 54 53 51 50 50 51 50 51 51 51 52 51 52 52 52 51 47 46 46 49 45 46 47 48 44 42 46 46 43 47 39 40 40 38 38 40 40 37 38 40 36 35 35 37 38 32 30 31
56 57 57 57 56 54 55 55 53 54 54 54 53 53 53 53 52 51 51 51 50 51 50 50 52 51 52 52 51 52 52 50 48 48 47 46 42 44 45 46 45 47 50 47 47 45 45 40 37 37 41 38 37 36 32 33 36 34 34 31 34 29 34
58 57 57 57 56 55 55 55 54 53 53 54 53 54 53 52 52 52 51 50 50 50 50 51 51 49 49 49 50 50 50 52 50 49 47 45 43 45 45 46 47 48 48 47 45 45 46 44 42 40 41 41 38 34 37 38 36 35 33 32 33 26 31
58 58 58 58 57 56 56 56 55 53 54 54 53 54 53 52 52 51 53 50 50 50 50 50 50 51 52 52 50 51 50 49 51 50 50 50 50 47 47 47 46 46 47 46 48 45 44 46 39 42 40 37 34 35 38 35 34 34 36 35 36 35 36
57 58 58 58 57 57 57 56 55 55 53 53 54 54 54 53 52 52 52 52 52 51 51 51 50 50 51 52 52 52 51 51 50 50 50 50 48 50 50 47 48 47 46 47 46 47 46 46 43 43 40 35 32 36 39 38 38 37 35 34 36 36 38
57 58 58 58 58 57 56 57 56 54 54 54 54 55 54 54 55 54 54 54 53 53 53 53 54 54 53 53 53 53 54 53 52 52 52 50 50 50 49 50 50 50 49 47 48 48 48 48 47 44 44 43 33 37 37 36 35 37 37 37 36 37 36
57 58 58 58 57 57 57 57 55 56 55 55 55 54 54 55 56 55 55 55 55 55 56 55 55 55 55 55 55 55 54 55 54 54 54 52 52 52 51 50 50 51 51 50 49 48 49 47 46 45 44 41 39 39 38 38 38 36 37 37 35 35 35
57 58 57 57 57 57 57 57 57 56 56 56 58 56 56 57 56 56 55 56 55 57 57 57 57 56 56 56 56 56 56 55 56 55 55 53 52 51 50 51 51 50 51 50 47 48 47 47 46 44 44 41 40 40 39 38 38 36 36 37 38 39 37
57 58 57 57 57 57 57 58 57 57 56 57 57 57 56 56 56 56 56 56 56 57 57 57 55 51 51 55 56 56 57 56 55 55 55 54 53 52 51 51 52 51 49 48 45 43 42 41 43 45 43 41 40 40 39 39 37 37 37 36 36 36 36
57 57 57 57 58 57 56 57 57 57 56 56 57 56 57 56 57 57 56 56 56 57 56 55 49 46 45 46 53 56 58 56 56 55 54 54 54 53 54 51 52 52 49 48 48 42 41 40 39 38 39 39 40 42 40 39 38 38 35 37 37 36 35
55 56 56 56 56 56 56 56 56 56 56 57 57 57 58 56 56 57 57 56 57 57 56 50 47 46 44 44 46 56 56 56 55 55 54 54 53 53 53 54 53 53 52 51 49 50 44 39 37 37 36 36 36 36 39 44 39 38 39 37 36 37 37
55 55 55 55 55 55 55 55 55 55 56 57 56 55 56 57 56 56 56 56 56 57 57 47 44 44 43 42 41 46 54 55 56 55 55 55 54 54 54 54 54 53 49 50 48 48 46 41 38 37 37 37 37 35 34 34 37 44 40 38 38 38 37
54 55 55 54 55 55 55 54 55 55 55 55 55 55 55 57 56 56 55 55 56 56 55 46 43 42 42 41 40 41 54 55 56 55 55 55 55 54 54 53 52 52 51 50 49 48 44 40 38 39 39 39 39 41 38 36 35 35 38 39 38 38 40
53 54 54 54 54 54 55 55 55 55 55 55 55 55 55 55 55 56 56 56 55 55 54 42 42 40 39 38 38 39 54 54 54 53 52 52 52 53 52 53 52 51 49 48 47 45 41 39 40 41 41 41 41 41 42 42 42 41 40 41 40 40 41
52 52 53 53 53 53 54 54 55 55 55 54 54 55 55 55 55 56 55 55 54 54 53 38 37 37 38 37 39 52 53 52 50 48 48 48 48 48 48 50 49 48 46 43 39 37 38 39 40 41 41 41 40 40 39 38 37 38 41 40 39 39 39
47 49 50 52 53 54 54 54 54 54 54 54 53 53 54 54 54 54 54 54 54 53 48 40 38 38 38 39 45 51 50 47 46 45 45 46 46 47 47 46 46 44 42 40 38 36 37 39 41 41 41 41 40 38 37 37 36 36 35 35 35 34 34
44 45 47 50 52 53 53 52 52 52 54 54 54 53 52 51 51 53 53 53 54 53 48 42 38 39 40 40 46 49 46 45 44 43 42 43 44 43 42 44 45 43 42 41 36 36 37 40 41 41 40 39 37 37 37 37 38 38 35 35 34 34 34
44 45 44 47 49 49 49 49 49 49 52 53 52 51 51 51 51 50 51 51 46 50 49 43 38 38 39 39 45 48 44 42 42 41 40 39 41 40 39 39 40 41 41 39 35 35 36 40 41 41 39 39 37 37 37 37 37 37 38 38 37 38 38
45 44 44 46 45 45 46 47 48 48 50 50 50 49 49 49 48 46 46 47 48 49 49 48 43 38 38 39 40 46 44 42 41 41 39 36 37 38 37 36 36 34 34 34 34 34 34 36 40 40 39 38 38 37 36 37 37 37 36 35 36 37 36
43 45 45 45 46 45 47 47 48 49 49 49 49 48 48 46 45 44 43 44 45 46 47 48 43 37 38 38 38 41 45 44 41 40 38 36 36 36 35 34 35 35 34 34 34 34 34 34 36 39 39 38 39 38 35 36 37 35 35 35 34 34 34
45 46 46 45 45 46 46 47 48 50 48 49 49 48 47 44 43 42 41 42 44 44 42 43 45 38 37 38 37 38 44 44 42 40 38 37 35 36 35 34 34 34 33 33 33 34 34 34 35 35 36 33 33 34 36 34 35 34 33 33 31 30 31
43 44 46 46 44 45 46 45 46 47 48 48 47 46 46 44 42 41 39 38 40 41 42 40 38 41 36 36 36 37 38 39 35 41 39 37 36 35 35 36 35 35 34 34 34 34 34 34 34 35 33 33 33 33 34 33 32 33 31 31 32 31 31
43 44 44 44 44 44 45 45 45 45 46 47 46 45 43 43 41 39 37 36 37 37 39 40 37 37 38 35 36 36 35 35 36 41 40 38 36 35 35 36 35 34 34 33 33 33 33 33 33 33 33 33 32 32 32 32 31 32 31 30 30 30 31

ECMWFFLT1_sfc_dewp_024.txt.gz
Dewpoint
58 59 60 60 59 56 54 55 56 57 59 58 58 57 58 57 59 59 60 61 59 58 58 57 59 60 60 62 63 62 61 61 62 60 60 60 59 60 62 61 60 60 60 58 56 54 51 49 48 50 52 53 52 51 50 50 52 53 53 52 51 51 51
59 59 58 57 56 56 56 56 56 55 58 59 58 58 58 57 57 57 59 59 60 59 57 57 60 61 64 64 64 62 62 61 61 61 60 59 59 60 60 61 60 57 57 58 58 55 50 49 47 48 50 51 52 51 51 50 50 51 50 48 46 46 50
59 57 56 56 56 56 55 57 56 56 55 57 58 58 58 56 57 57 57 59 60 58 56 59 60 61 63 63 64 64 63 62 62 61 60 59 60 62 60 60 58 57 57 57 56 55 52 52 47 45 49 49 48 48 50 49 49 48 47 48 49 45 47
60 58 57 57 55 55 54 55 54 54 55 55 56 58 58 56 57 56 57 59 60 59 57 56 57 56 59 61 62 63 64 63 62 62 61 60 60 59 59 57 57 56 56 55 55 54 54 52 48 47 47 45 46 48 47 46 45 42 42 45 45 45 47
61 58 57 56 54 54 54 54 53 53 54 54 55 55 56 56 56 55 58 58 58 59 57 56 56 56 57 58 59 60 61 63 63 62 62 62 61 60 60 59 57 58 57 56 55 54 52 51 50 48 45 44 41 39 40 46 42 41 39 38 37 41 42
60 58 57 55 55 53 53 52 53 52 51 52 54 55 56 56 55 55 57 56 57 58 57 55 56 56 55 55 56 58 59 60 60 61 61 62 62 60 59 60 55 55 54 54 54 53 52 51 50 46 43 41 41 40 39 41 39 37 37 36 35 35 37
60 59 57 55 54 53 53 52 53 51 51 53 55 55 54 54 54 57 59 58 58 58 58 58 57 55 55 51 54 56 57 58 60 61 61 60 59 57 55 53 53 52 51 51 50 50 50 49 46 46 44 42 42 37 37 37 38 35 34 33 33 34 36
59 58 55 55 55 54 53 53 52 52 52 52 53 54 54 55 56 57 57 57 57 57 57 57 55 55 55 51 53 55 54 54 55 55 56 56 55 53 54 50 48 45 42 40 40 40 38 43 43 44 40 42 42 39 37 35 37 38 35 33 30 30 35
58 57 56 54 55 55 55 53 52 52 52 53 54 54 55 55 55 55 55 54 54 54 55 55 54 53 54 52 50 52 52 51 54 54 53 54 55 54 51 47 43 42 43 39 40 39 37 42 43 41 42 42 39 38 39 38 38 36 36 34 29 27 29
60 58 57 58 57 57 55 53 51 52 54 53 53 54 54 54 53 53 52 52 51 51 52 52 52 53 53 52 50 50 51 51 50 49 49 49 51 48 49 48 44 44 46 47 44 45 44 43 41 42 40 40 42 38 39 39 41 37 31 31 28 26 27
60 59 59 59 58 56 55 53 53 51 53 53 53 54 54 53 53 52 52 51 51 49 49 48 48 50 51 48 49 49 49 49 48 47 47 47 48 48 47 46 46 44 48 48 48 50 49 46 42 41 38 39 39 38 39 38 39 42 37 34 30 24 25
60 60 60 59 57 57 55 53 51 50 54 53 52 54 53 51 52 51 51 50 49 49 48 48 48 48 47 46 46 45 47 46 45 47 49 49 49 50 50 49 49 48 50 50 50 49 49 46 44 42 41 43 44 44 42 38 38 40 44 39 30 27 27
58 59 59 59 58 56 53 53 51 52 54 51 52 52 50 49 50 50 49 49 49 47 46 46 46 47 48 47 45 43 45 44 42 44 43 46 44 48 49 48 47 47 47 45 47 49 47 48 47 42 44 45 44 46 44 43 41 42 42 36 33 28 29
60 59 58 59 58 57 54 53 53 53 51 52 51 51 49 49 46 48 47 47 47 50 48 48 48 48 47 48 46 46 46 43 42 44 46 48 46 47 44 44 46 47 48 47 46 46 44 45 46 46 45 43 43 45 44 45 41 41 41 40 36 29 32
59 59 60 59 59 58 55 55 56 53 53 53 51 48 47 50 49 49 47 46 49 49 49 48 48 48 46 47 49 49 48 44 43 43 45 43 46 46 47 44 42 45 45 44 46 38 39 40 39 40 41 42 39 42 44 42 41 42 42 40 35 33 33
58 60 60 59 59 57 56 56 56 54 53 54 53 50 49 50 48 47 47 48 47 49 49 48 50 49 49 48 45 48 48 46 46 46 46 43 39 43 45 45 44 47 48 47 46 44 43 40 38 39 42 39 40 40 39 40 42 42 42 39 40 34 37
59 59 59 58 59 58 56 55 55 55 54 53 51 53 51 48 48 47 47 47 48 49 49 50 49 48 47 49 49 48 47 48 47 46 44 42 39 42 45 46 46 47 47 47 45 44 44 43 44 42 44 43 43 41 44 45 43 43 42 39 39 30 35
58 58 58 56 59 58 57 55 54 54 55 54 52 52 52 50 49 48 50 46 46 47 48 47 48 49 50 50 49 49 48 47 49 48 48 47 47 45 45 47 46 46 47 48 47 45 44 46 41 44 43 41 40 43 44 43 43 43 43 42 41 39 40
58 58 58 57 58 58 57 56 55 55 54 53 54 53 52 51 50 49 48 46 47 47 47 48 47 47 47 49 50 51 50 50 49 48 49 49 47 48 49 47 48 46 46 48 48 47 47 47 44 45 43 41 39 43 45 44 44 44 42 40 43 41 42
57 57 57 57 57 56 56 57 55 54 54 54 55 54 53 51 52 51 48 49 49 50 50 50 50 50 49 49 50 51 52 51 51 51 50 49 49 49 49 48 50 50 48 48 51 50 50 48 48 47 45 46 41 44 45 44 42 43 44 43 42 43 42
58 57 57 57 56 57 56 56 55 54 54 54 55 53 53 52 52 51 52 52 52 53 53 53 52 53 52 54 55 55 55 55 53 53 54 51 52 51 51 50 50 50 50 49 51 50 50 51 48 47 46 46 44 45 45 44 45 43 43 44 41 41 41
58 57 57 56 56 56 55 56 55 54 55 55 56 53 53 53 53 52 53 54 54 55 56 55 55 55 55 55 56 56 56 55 56 55 55 55 55 54 53 53 52 51 52 53 50 50 49 48 49 47 48 46 45 45 45 44 44 43 42 43 41 43 41
56 57 57 57 55 55 54 55 56 55 55 54 55 55 54 54 53 54 55 55 56 58 58 58 57 51 52 55 56 56 57 56 55 55 56 56 56 56 56 56 55 54 51 50 48 45 44 44 45 49 48 47 45 44 45 45 44 44 44 42 40 42 42
55 55 56 56 55 54 54 55 56 57 56 55 56 56 56 55 56 56 55 56 57 58 58 57 47 45 46 48 54 56 56 56 57 57 56 57 56 55 56 54 56 54 53 50 50 44 42 42 40 39 39 40 44 53 46 44 44 45 43 43 43 42 41
55 55 56 55 55 55 56 56 55 56 56 57 58 58 57 56 55 56 55 55 57 57 57 51 44 44 44 44 50 55 56 56 57 56 56 56 55 55 56 57 57 57 55 54 52 51 45 41 39 37 36 36 36 36 37 47 46 44 45 43 43 43 42
55 56 56 56 56 55 55 56 56 56 57 58 58 56 56 56 55 56 56 55 56 57 58 45 44 43 43 43 44 52 56 56 56 58 57 57 57 57 56 56 57 57 54 53 51 52 50 45 39 37 37 37 37 36 33 33 35 47 44 43 42 41 41
52 53 55 56 56 55 55 55 56 57 57 57 56 56 57 56 55 55 56 56 55 56 55 46 43 43 42 41 41 48 57 57 58 57 57 57 56 56 56 55 54 54 55 52 51 52 50 46 43 40 39 38 38 40 34 33 32 32 36 42 41 40 44
47 50 52 52 54 55 56 57 56 56 56 56 57 56 56 55 56 57 57 57 55 55 54 43 43 42 41 40 39 47 57 57 57 56 55 55 55 54 55 55 55 53 53 53 52 51 49 46 44 42 40 40 41 41 44 46 47 46 44 44 43 44 45
44 46 48 51 52 54 55 55 55 57 57 56 56 57 57 57 57 57 57 57 56 55 57 40 41 41 40 39 42 57 57 56 55 54 54 54 54 54 53 55 54 53 52 50 42 41 42 44 43 43 43 43 44 45 41 38 36 37 43 45 45 45 44
42 44 46 49 49 51 53 54 55 55 55 56 56 56 56 57 57 57 57 56 56 55 55 43 39 39 39 38 45 51 53 55 55 53 53 53 51 51 52 51 51 50 48 46 39 37 38 40 44 44 43 44 44 42 40 38 36 36 35 35 34 34 34
40 43 44 44 47 51 52 51 52 53 52 53 54 55 55 55 56 56 56 56 54 56 54 44 38 38 38 39 47 52 50 50 51 51 50 50 48 45 45 44 48 47 45 42 36 36 37 41 44 43 44 43 43 43 42 41 40 39 35 35 34 34 34
39 41 42 44 47 49 50 50 50 51 52 52 55 55 55 55 55 55 55 56 54 54 54 45 38 38 39 40 49 51 48 48 49 48 47 46 45 43 43 42 40 43 43 41 36 37 37 40 44 44 44 43 41 42 42 42 43 42 42 41 40 40 39
39 39 40 42 45 47 49 49 50 49 49 48 50 52 53 54 54 54 54 54 55 55 54 52 46 38 40 41 42 52 47 45 46 47 45 43 43 42 41 40 38 35 35 35 35 35 35 36 43 44 43 42 42 42 42 42 41 40 40 38 38 39 39
40 40 40 41 42 44 46 48 48 47 47 46 48 50 52 54 53 52 52 54 54 54 54 52 48 39 39 40 40 42 46 46 46 44 43 42 42 41 39 37 37 35 34 34 34 35 35 35 36 44 45 44 42 41 37 40 37 32 36 37 37 36 36
41 42 41 42 43 43 44 46 48 48 45 45 50 52 52 51 50 50 51 52 53 52 50 48 49 39 38 39 39 39 45 47 46 44 43 41 41 41 39 36 36 35 34 34 34 34 34 34 34 38 38 33 33 33 39 34 37 36 35 34 32 30 31
39 41 42 42 42 42 43 45 47 47 46 47 48 49 50 48 48 48 48 49 51 50 50 47 43 45 37 38 38 38 39 44 38 46 44 42 42 40 39 39 36 35 34 34 34 34 34 34 34 35 33 32 31 30 33 34 33 34 33 33 32 32 31
37 39 40 41 40 42 43 44 44 45 44 44 43 45 46 47 44 42 44 47 48 48 49 46 39 40 41 36 37 37 37 37 38 45 45 43 42 40 39 37 35 34 34 34 33 33 33 33 33 33 33 33 32 33 35 34 32 34 32 31 31 31 32

ECMWFFLT1_sfc_dewp_027.txt.gz
Dewpoint
56 56 58 57 56 54 52 53 55 57 57 56 56 56 57 57 58 58 59 59 56 55 54 54 58 59 61 60 61 62 63 62 63 61 60 61 58 59 62 61 62 62 60 60 58 59 54 50 48 50 52 53 53 52 51 50 50 51 53 52 51 51 52
56 57 55 54 53 55 55 55 55 54 57 57 56 55 57 56 56 57 58 58 58 56 53 55 60 61 61 62 61 62 62 62 63 63 62 59 60 61 60 59 61 60 61 59 61 60 59 49 47 49 50 52 53 52 51 51 49 50 49 48 47 47 51
56 56 55 54 54 55 55 56 55 55 53 54 56 56 56 55 56 57 57 58 58 56 55 58 60 62 63 63 63 63 64 63 63 61 61 60 61 62 60 62 59 61 57 59 60 59 59 51 48 47 50 50 49 49 50 49 49 48 47 49 49 46 48
57 56 55 55 53 55 54 55 56 55 55 55 56 57 57 55 56 57 58 58 58 58 55 55 56 55 58 61 63 63 64 63 62 63 61 60 62 63 61 61 62 58 59 57 58 58 59 51 48 49 49 47 46 47 47 46 46 42 42 46 46 47 48
58 56 56 55 53 53 54 54 53 53 54 54 56 55 57 56 56 57 58 58 57 57 56 56 55 55 55 57 59 61 61 62 62 62 60 61 60 60 61 61 61 61 60 60 57 59 59 56 50 48 44 44 42 38 39 45 40 39 38 37 39 43 45
58 56 55 54 53 52 52 52 52 52 51 53 54 55 56 55 54 56 57 57 57 58 57 55 55 55 55 55 57 59 61 60 61 62 62 61 60 60 60 60 57 56 54 57 61 54 53 52 49 45 42 40 39 39 37 39 37 35 35 35 35 36 38
58 57 54 54 53 52 52 52 53 50 52 54 54 54 53 53 56 56 58 57 57 57 56 55 56 55 55 52 56 57 57 59 62 61 62 62 61 57 56 54 54 53 52 53 54 53 51 50 46 45 42 41 40 35 35 33 34 30 31 30 32 34 36
57 56 53 54 55 53 52 53 53 51 52 54 54 55 54 55 56 56 56 56 55 56 55 53 53 55 55 52 53 55 55 55 56 57 57 56 55 53 54 52 50 47 45 42 43 47 46 48 47 45 42 39 39 38 37 34 36 32 29 29 28 31 37
57 56 54 53 54 54 54 53 52 53 53 53 53 53 54 56 56 55 54 54 53 54 53 53 52 53 53 51 50 52 51 49 54 54 54 54 53 51 48 46 44 40 42 39 40 41 39 43 45 43 42 39 37 35 37 35 35 34 34 30 28 29 33
57 56 54 55 54 54 54 53 51 52 54 54 52 54 54 54 53 52 51 51 52 52 54 54 54 53 52 51 51 51 51 51 51 49 50 50 50 49 48 47 44 44 43 46 43 43 43 44 41 41 40 40 40 36 37 37 38 34 32 30 26 28 30
57 57 56 55 54 53 52 52 53 52 52 52 52 53 54 53 52 50 49 48 49 49 50 50 50 51 51 48 49 49 48 49 48 48 48 48 48 48 47 47 48 48 50 50 48 49 47 46 43 43 41 42 41 40 39 38 40 39 35 33 29 25 29
57 58 58 57 56 53 51 50 50 51 52 52 51 52 51 49 50 49 49 47 47 46 47 48 48 48 47 47 46 45 46 47 46 48 49 50 50 51 51 50 50 49 51 51 50 49 49 46 44 42 42 45 46 47 43 41 41 43 41 37 33 30 29
57 58 58 56 56 52 48 49 50 52 51 48 49 49 47 47 47 47 46 45 45 44 44 45 46 45 46 45 43 42 45 45 43 44 45 48 46 50 50 48 47 47 47 47 49 50 47 47 48 43 45 46 46 47 46 44 42 42 41 37 35 33 33
58 57 57 57 56 52 50 49 50 52 49 49 49 47 46 45 44 46 45 43 42 44 45 46 47 47 45 45 43 43 42 40 40 43 46 47 45 47 46 46 47 48 47 47 46 46 44 43 46 46 46 44 44 47 46 46 43 42 42 42 39 33 37
56 57 57 57 56 52 50 49 52 51 51 49 48 45 43 45 45 45 43 43 43 42 43 44 45 46 46 47 47 47 45 43 43 44 47 45 47 45 47 45 44 47 46 44 45 39 40 41 41 42 42 44 42 44 46 44 42 42 43 42 39 36 37
57 57 57 57 56 52 50 51 51 51 52 50 48 46 45 45 44 43 44 45 43 43 43 44 47 46 47 47 46 48 47 46 45 46 46 45 43 45 46 46 46 48 47 47 47 45 44 41 38 40 43 42 43 44 42 42 43 43 43 41 42 37 39
57 57 58 57 58 55 52 53 51 52 51 51 48 48 46 44 43 44 45 44 44 44 44 47 47 44 42 43 46 47 46 47 46 46 44 41 41 44 45 45 46 47 47 46 44 43 43 44 45 44 45 46 46 44 46 46 45 44 43 41 41 32 38
57 57 57 57 59 57 55 53 52 48 51 51 51 50 47 45 44 43 46 43 43 44 45 45 45 45 48 47 44 46 45 45 47 46 45 44 48 44 46 47 44 45 47 47 47 43 44 46 42 46 45 43 43 46 47 46 45 44 43 43 43 43 43
57 57 56 55 57 59 57 54 53 52 50 48 50 52 50 47 44 42 42 41 42 43 43 44 44 45 46 48 48 48 47 47 47 47 48 47 45 46 47 48 47 47 47 49 47 48 47 47 45 46 45 44 41 45 48 47 47 46 44 41 44 43 45
58 57 57 57 57 57 58 56 53 51 51 51 48 49 49 48 47 46 43 42 42 43 43 44 45 45 45 46 47 48 49 49 48 49 48 48 46 48 49 48 50 49 48 49 50 50 50 49 48 48 47 48 43 45 47 46 42 43 44 43 43 43 42
58 58 58 58 57 58 58 57 55 52 51 52 52 49 47 48 49 48 46 44 44 45 45 44 44 45 45 46 48 49 50 51 50 50 51 49 49 49 49 49 50 50 50 49 52 52 51 50 50 49 48 48 47 47 47 47 47 45 44 43 40 40 40
58 58 57 57 58 57 57 56 56 54 52 52 53 51 50 49 49 48 46 47 46 47 48 47 46 48 47 47 50 51 51 50 51 51 51 51 52 52 51 52 51 51 52 55 51 50 51 49 53 49 49 49 48 47 47 47 47 45 43 42 40 42 39
57 57 58 58 57 58 57 57 57 55 54 52 51 51 50 50 48 49 47 47 48 51 51 51 55 49 49 51 53 53 54 54 53 53 54 53 55 54 54 54 55 56 53 50 49 46 45 45 46 50 51 50 48 47 47 47 47 46 45 42 41 39 38
56 56 57 57 57 56 56 56 56 56 56 55 54 53 53 52 52 51 49 50 51 54 55 54 47 47 48 50 54 55 55 56 55 55 55 55 55 56 58 58 58 58 56 52 53 45 44 43 41 39 40 41 46 55 49 47 47 46 45 45 42 40 39
54 55 56 55 55 54 55 56 56 56 58 59 58 58 58 54 53 54 54 53 54 57 58 50 44 45 46 47 50 58 57 56 56 56 56 56 56 57 58 57 56 57 57 56 54 52 47 42 40 37 37 37 36 36 38 45 45 46 46 43 43 45 44
54 55 56 55 56 56 55 56 56 57 57 58 59 58 58 59 58 59 58 56 56 57 58 45 44 44 44 44 45 51 54 56 56 56 55 55 56 58 58 57 57 58 57 55 55 54 51 47 39 38 38 37 37 35 33 33 35 46 45 45 45 44 42
48 51 54 56 56 56 56 56 57 58 58 59 58 57 59 58 58 58 57 56 56 58 57 46 43 44 43 43 43 45 54 55 55 54 54 55 58 58 59 59 58 57 58 57 56 55 53 48 44 41 42 42 41 42 34 33 33 34 37 43 44 43 44
44 46 47 49 52 54 56 57 57 57 57 57 57 57 57 57 58 57 58 57 58 57 58 44 42 43 43 42 42 41 54 56 56 57 58 58 58 58 58 58 58 57 59 57 54 54 52 49 47 46 44 44 43 40 41 40 43 45 44 45 44 44 45
42 42 44 47 48 48 51 54 57 58 57 57 57 57 57 57 57 56 56 57 57 56 57 44 43 43 42 41 40 54 52 56 56 56 55 56 56 56 56 57 56 56 56 55 48 45 47 49 48 46 46 45 43 43 43 36 36 37 43 45 45 45 44
42 42 42 42 43 46 48 50 52 55 55 55 55 56 57 56 57 56 55 57 56 57 57 47 42 42 41 40 43 53 52 55 55 55 55 52 52 54 53 53 54 51 53 52 43 40 41 43 48 47 46 45 45 46 43 40 37 36 35 35 35 35 35
40 41 41 42 42 44 46 48 49 51 53 53 53 53 53 53 55 55 56 56 56 56 55 49 41 41 41 40 48 52 52 51 54 53 53 51 52 52 49 45 49 52 53 48 38 39 39 46 47 46 46 47 46 44 43 41 40 41 35 34 34 33 33
39 40 41 41 44 45 46 47 47 48 49 50 50 51 52 52 54 55 56 57 55 56 55 48 40 40 40 40 47 54 51 50 50 50 50 50 50 49 46 43 42 47 47 43 36 36 36 41 48 47 45 45 43 43 45 44 44 43 42 42 40 41 40
38 40 41 42 43 43 44 45 47 48 49 48 46 47 49 51 53 54 55 56 57 56 57 54 45 40 40 41 43 54 54 52 53 50 51 47 47 47 45 42 39 35 35 35 35 35 36 37 47 46 46 44 41 42 44 45 45 43 42 41 41 42 42
36 38 40 42 42 42 43 43 45 46 48 47 46 44 46 51 52 53 54 56 56 56 56 55 48 39 40 41 41 42 54 53 51 52 47 46 44 44 42 38 38 36 35 35 35 35 35 36 39 47 46 43 41 44 40 43 43 32 37 37 37 37 38
37 38 38 39 41 42 42 43 43 44 44 46 46 44 44 48 49 51 53 54 55 56 55 52 50 39 39 41 40 39 46 50 47 47 43 43 42 42 40 38 37 36 34 34 34 35 35 35 36 38 38 32 31 32 40 37 40 39 38 37 34 32 33
35 35 36 36 38 41 41 42 43 43 45 46 46 44 44 45 49 51 52 51 55 55 54 51 46 47 40 40 40 38 38 46 39 49 42 41 41 41 40 40 37 36 34 34 34 34 34 34 34 34 32 31 31 30 33 32 33 35 32 33 34 33 31
32 33 34 35 35 36 38 40 41 41 42 44 43 43 43 45 47 50 50 50 53 53 52 51 44 44 43 38 37 37 38 39 43 43 44 42 42 41 39 38 36 34 34 34 34 33 33 33 33 32 31 32 31 32 34 34 33 35 33 31 31 32 33

ECMWFFLT1_sfc_dewp_030.txt.gz
Dewpoint
63 61 63 62 62 61 61 60 62 66 60 59 64 61 61 63 64 64 63 64 62 59 59 61 63 64 65 61 64 64 63 63 63 61 60 60 60 61 63 62 62 61 61 61 58 57 52 50 50 52 52 55 54 53 50 49 53 55 55 54 52 51 52
60 61 59 58 60 61 61 61 63 59 61 62 59 62 63 62 62 63 64 63 61 62 58 59 63 63 64 64 63 64 66 64 64 62 61 61 61 61 61 60 62 61 61 61 62 60 57 49 50 51 51 53 53 52 51 51 51 54 53 50 50 50 51
60 59 59 59 60 62 62 63 61 61 59 63 65 62 63 59 62 63 61 63 63 59 59 60 62 64 65 64 65 64 65 64 65 62 62 61 61 62 62 62 60 60 59 59 60 59 58 57 51 49 50 49 47 51 54 51 51 51 49 52 50 48 48
61 61 58 58 59 61 60 61 61 61 61 60 62 63 62 60 62 62 63 62 61 62 60 59 61 59 62 64 65 65 63 63 63 62 62 61 61 61 61 61 60 59 58 57 58 58 58 56 50 50 49 47 47 50 53 50 46 44 45 51 49 48 48
62 59 59 58 58 58 60 61 63 62 59 61 62 62 61 61 62 62 62 61 61 62 62 64 61 59 60 61 63 63 63 63 64 62 62 62 62 61 61 61 61 60 60 59 60 60 58 57 52 50 48 44 42 41 43 51 42 42 41 41 43 47 48
61 60 60 60 60 60 60 60 59 60 59 59 61 59 60 60 61 63 61 62 61 60 61 60 59 58 60 60 60 61 61 61 63 62 62 62 61 61 60 61 61 60 61 62 60 60 60 58 56 49 44 43 41 40 37 39 38 35 37 38 38 41 43
61 61 61 60 61 60 61 61 61 59 60 60 59 61 60 61 60 58 60 60 60 60 60 59 60 59 59 56 58 59 60 61 62 62 63 62 62 61 60 59 59 59 58 60 59 59 58 57 53 49 43 42 40 37 36 33 30 29 31 32 35 38 41
60 60 59 60 61 61 62 61 62 60 60 59 59 60 61 61 61 61 61 59 57 58 59 58 60 58 58 55 56 59 59 59 60 61 61 59 58 57 58 57 56 54 56 57 57 56 55 55 54 49 43 42 43 41 37 32 29 28 28 29 33 38 43
59 60 59 60 62 64 63 63 61 62 59 58 58 60 61 61 59 58 57 58 59 59 59 58 59 56 58 57 56 57 56 57 58 57 54 55 56 56 55 54 50 50 50 51 48 50 50 55 53 51 47 45 44 42 42 39 36 30 27 27 31 35 38
59 59 58 60 61 63 64 62 62 59 58 58 58 60 59 60 60 58 56 57 58 59 58 58 58 57 56 56 55 54 53 53 53 51 54 53 53 52 52 51 50 50 50 52 50 52 53 53 54 58 47 48 48 40 40 40 40 39 31 29 28 32 35
64 59 58 58 59 60 60 60 59 58 57 58 58 59 59 58 57 56 56 56 56 57 58 58 56 55 56 56 55 54 54 55 54 55 54 54 55 55 54 52 52 53 53 51 53 51 50 49 49 51 48 49 48 49 44 40 41 43 39 33 31 29 32
63 59 58 57 58 58 57 58 59 59 57 57 57 59 57 56 57 55 55 55 56 55 56 55 56 55 53 52 52 53 54 54 53 53 54 54 55 55 54 53 54 54 55 55 55 54 54 56 52 48 50 50 52 51 43 42 43 46 45 41 38 33 33
62 58 59 58 58 57 55 56 57 57 58 56 56 56 55 54 54 54 53 52 53 54 54 54 53 53 54 53 54 51 52 51 50 50 52 53 50 53 52 52 53 53 54 51 50 51 50 50 52 50 50 51 49 50 47 45 42 43 47 43 41 36 37
62 60 60 59 59 57 55 56 58 58 55 57 56 56 53 52 50 52 50 50 49 53 53 54 54 54 53 53 51 50 51 48 47 51 51 52 51 51 49 49 50 51 51 52 51 51 49 48 50 51 50 49 49 51 47 44 42 43 45 52 50 41 43
61 59 60 59 60 56 54 56 58 56 56 56 55 53 50 54 52 52 49 47 50 49 51 52 53 54 52 53 52 53 52 50 48 49 53 50 50 51 53 49 50 53 53 50 52 42 44 47 43 46 45 48 46 49 47 47 44 44 44 48 44 40 44
61 62 60 60 59 54 55 56 56 57 56 55 55 54 53 54 52 51 51 51 48 50 49 52 55 54 54 53 51 54 53 52 53 52 50 50 46 50 51 51 50 52 53 52 51 49 48 45 44 43 45 46 47 47 46 46 48 45 44 45 48 40 44
61 61 61 60 60 56 55 56 56 56 56 54 52 57 53 52 52 53 52 49 49 50 50 54 53 51 52 53 52 52 51 52 53 52 50 47 47 50 50 51 51 52 52 52 51 49 50 50 48 47 46 49 49 48 49 53 47 50 45 43 45 36 42
60 61 60 59 60 57 56 56 57 54 59 56 54 57 51 54 53 51 53 49 47 49 49 50 50 51 54 54 54 54 52 51 52 52 52 50 52 50 51 50 50 51 51 52 51 51 49 50 48 48 49 45 45 49 51 49 50 47 48 48 47 46 48
59 59 60 61 62 60 58 57 56 57 55 55 58 57 52 54 49 49 48 48 47 47 47 50 48 48 49 53 54 53 53 53 52 51 52 50 50 52 52 51 51 51 51 52 52 53 51 48 51 49 49 46 44 50 52 51 49 47 47 47 47 48 45
60 59 59 60 61 61 60 59 55 53 54 55 58 57 57 54 55 54 47 50 48 49 48 48 51 52 51 53 53 53 55 53 54 54 53 52 51 53 52 52 52 53 53 52 53 53 53 53 53 52 51 53 47 49 50 49 47 47 48 45 45 49 47
59 58 59 58 59 59 60 61 59 57 55 54 55 54 56 56 55 54 53 52 51 51 52 51 51 50 50 54 54 54 55 54 53 54 54 53 53 53 53 54 53 53 54 54 53 54 53 53 53 53 53 52 51 51 51 53 50 48 48 48 46 45 44
60 60 59 60 60 60 60 61 60 59 59 57 59 56 54 54 55 53 53 54 53 53 54 52 54 53 53 50 54 54 55 53 55 54 54 54 54 53 52 54 55 55 56 56 51 51 50 52 54 54 53 52 52 53 50 50 51 50 48 48 47 47 45
59 59 59 59 59 59 59 61 60 60 59 57 56 57 57 55 52 54 54 54 53 56 55 55 51 46 47 52 53 53 55 54 54 54 53 53 54 54 56 57 57 57 52 50 48 44 43 44 47 49 48 50 50 52 52 50 50 50 49 47 46 45 43
58 58 59 60 60 59 58 60 60 60 60 60 59 58 58 56 56 55 54 54 54 55 54 54 45 45 47 48 51 55 55 55 55 55 54 54 56 57 56 57 58 55 53 52 50 44 43 41 39 39 40 41 45 53 52 52 50 50 48 47 46 46 46
56 58 58 57 58 58 58 58 58 59 60 60 59 59 60 59 59 58 58 57 56 55 56 51 47 46 46 49 50 59 58 57 56 56 56 55 55 57 57 56 57 58 56 56 55 52 47 43 40 38 37 37 36 37 41 46 47 48 47 47 47 47 45
55 57 57 57 57 59 57 57 58 58 59 59 59 59 59 60 59 59 58 57 57 57 57 50 47 47 45 45 47 52 57 56 57 56 56 56 56 57 56 57 56 57 57 56 56 56 53 47 40 39 38 38 38 35 34 34 39 45 46 47 47 47 46
52 54 56 57 60 59 59 57 59 59 59 59 59 59 59 59 58 59 57 56 56 57 57 50 45 47 45 43 43 46 56 58 57 57 57 58 57 56 55 54 55 57 58 57 57 57 56 52 48 45 44 44 42 38 35 35 34 35 39 47 46 46 49
45 47 51 55 57 56 58 59 59 58 58 58 58 58 58 58 58 58 57 57 57 58 58 49 44 44 43 43 43 44 53 56 58 57 58 58 57 57 55 55 55 56 57 57 57 55 56 52 48 47 47 47 45 42 44 45 46 47 48 49 48 48 47
45 44 46 48 51 54 56 57 57 59 58 58 58 59 59 58 58 57 57 57 57 57 57 48 44 43 42 42 43 50 53 53 56 57 56 56 57 58 57 56 56 57 57 56 52 48 51 49 48 47 46 46 47 45 38 35 35 36 41 41 41 42 39
42 44 45 46 46 50 51 54 56 57 57 57 57 57 57 57 57 57 57 57 57 57 56 50 46 45 43 42 43 52 52 51 53 56 56 56 57 56 56 57 56 56 57 55 50 45 44 45 48 48 47 47 47 45 42 41 37 36 35 35 35 35 35
38 41 42 43 45 49 50 50 50 54 55 55 55 55 55 56 57 57 57 56 56 56 56 52 47 46 44 42 45 51 51 51 53 56 55 56 54 54 49 49 53 55 56 53 41 42 42 47 49 49 48 47 46 45 43 43 42 42 36 35 35 34 34
36 39 41 44 47 47 48 49 49 50 51 52 53 54 52 52 53 55 57 57 55 56 57 53 44 43 43 42 45 51 52 50 52 55 55 54 53 49 46 44 46 53 52 46 39 40 40 45 50 50 48 46 46 45 43 42 42 41 43 42 41 43 40
38 40 39 42 45 47 47 47 48 48 48 47 47 49 50 50 51 51 54 57 56 55 57 56 47 41 42 41 42 51 52 52 52 52 53 53 51 48 48 43 42 39 38 36 36 36 37 38 46 50 48 47 46 46 44 44 47 45 44 45 44 42 43
38 39 38 40 42 43 44 45 47 47 47 47 47 48 50 50 49 51 53 56 56 56 56 56 53 40 41 41 41 45 51 52 53 52 52 50 50 48 43 44 41 37 36 36 36 36 37 37 40 46 44 41 41 43 43 42 40 39 40 40 39 40 41
38 40 38 38 38 39 40 42 43 45 44 45 46 47 48 48 47 47 52 54 56 56 56 52 55 43 40 40 40 41 50 54 53 52 50 48 49 48 44 40 38 37 35 35 35 35 34 34 35 35 32 31 31 32 40 43 43 41 42 39 39 38 39
38 37 38 38 38 37 38 37 40 43 44 44 44 45 46 48 47 46 50 55 55 56 56 53 49 47 41 40 41 40 43 47 45 52 50 50 47 43 41 41 38 36 35 34 34 34 34 33 33 31 32 30 30 30 36 37 39 40 38 36 39 37 35
36 37 37 38 37 37 37 38 38 38 39 41 42 43 44 45 46 45 46 52 54 53 54 54 49 45 45 39 40 40 41 39 39 48 50 49 44 40 38 37 36 34 34 34 33 33 32 32 30 32 32 32 30 31 39 38 37 39 35 35 34 34 35

ECMWFFLT1_sfc_dewp_033.txt.gz
Dewpoint
58 56 57 55 56 58 57 58 59 57 56 59 59 58 60 60 60 61 63 63 62 62 63 62 62 62 62 63 63 62 62 61 60 59 58 59 59 58 61 60 59 60 59 57 55 52 49 47 47 50 53 55 55 54 55 53 54 53 51 50 50 50 51
59 56 55 55 55 56 56 57 58 56 57 57 56 58 58 59 59 58 59 59 59 62 62 61 61 62 62 62 61 61 61 61 61 60 59 59 60 59 58 57 59 59 59 60 59 53 50 47 48 48 49 52 51 50 50 52 53 51 50 50 49 48 49
57 54 55 55 54 55 57 58 56 55 56 57 57 58 57 58 60 60 59 59 58 59 60 61 61 62 62 62 62 62 62 60 60 60 59 59 60 60 59 58 57 56 56 56 56 54 53 51 49 48 49 47 46 48 49 49 50 51 49 48 47 46 46
55 55 54 53 54 57 54 56 55 54 57 56 58 58 57 59 59 60 58 58 58 60 59 59 59 61 62 62 62 62 62 61 60 60 60 60 59 59 59 58 57 57 56 54 55 55 53 51 49 49 47 46 45 45 48 49 48 48 48 48 47 46 45
55 54 53 53 55 55 54 55 57 57 55 57 56 54 54 58 58 57 58 57 57 58 58 59 59 60 60 61 62 61 61 61 60 60 60 59 59 59 58 58 58 58 56 56 57 57 53 52 50 48 46 46 46 47 50 48 46 47 47 47 47 46 46
55 53 54 54 55 55 55 57 56 55 56 57 56 55 54 56 57 57 57 56 55 55 56 57 58 59 59 59 60 61 61 60 60 60 60 59 59 59 58 58 59 58 57 58 58 57 55 54 50 48 46 46 45 44 44 42 40 40 44 46 46 46 45
55 55 55 54 55 55 56 55 55 54 56 56 54 53 55 56 57 58 58 57 56 56 56 57 57 57 58 58 59 59 60 60 60 60 60 59 59 58 59 59 59 58 59 59 58 58 57 54 50 47 45 43 41 37 37 34 33 33 36 41 44 45 45
56 56 56 56 55 55 56 54 56 56 56 56 56 56 57 57 58 57 54 53 53 53 53 55 56 55 56 57 58 58 58 59 59 59 59 59 60 59 58 58 58 58 58 59 58 56 56 55 52 47 42 40 39 38 37 31 31 33 34 39 42 44 46
56 56 56 56 56 55 55 57 57 56 55 54 54 55 57 54 54 54 55 55 55 56 56 56 54 54 54 54 55 55 56 57 53 53 54 54 55 56 56 55 55 56 57 58 57 56 55 55 55 46 43 39 37 37 36 31 30 31 35 35 38 41 43
56 55 55 56 56 56 57 56 55 54 54 54 56 56 56 56 55 54 53 54 54 54 54 55 54 53 52 51 51 51 51 52 52 50 49 49 49 48 48 48 50 51 52 54 53 53 53 53 54 48 43 40 41 36 32 32 32 31 35 35 34 37 39
57 55 56 56 55 54 56 55 54 53 53 54 55 56 55 52 53 55 53 52 52 54 55 53 53 54 53 51 50 50 52 52 52 51 53 52 51 50 50 49 48 49 50 50 50 49 48 48 48 49 49 47 41 36 37 35 38 40 34 35 34 33 38
57 56 55 55 54 54 54 54 53 53 54 55 54 52 51 51 51 51 50 51 51 50 50 52 51 49 48 48 50 51 51 51 51 51 51 52 52 50 50 51 51 51 49 47 47 48 49 48 48 48 48 50 46 40 38 38 36 39 40 37 38 34 35
56 54 53 54 54 53 54 55 53 52 53 54 53 52 51 51 50 49 50 50 49 49 50 50 48 48 48 50 50 50 49 50 50 50 51 50 49 49 49 49 50 48 48 47 46 47 48 48 47 47 47 46 45 45 42 40 37 38 44 40 37 35 35
57 55 55 55 54 53 53 54 52 52 54 52 52 51 51 50 49 50 48 49 48 49 49 47 49 49 50 49 48 48 48 49 50 49 50 50 50 49 50 50 50 50 50 48 47 47 45 45 47 48 48 47 45 42 39 38 37 38 39 46 42 39 41
57 57 56 56 53 52 53 54 53 52 52 51 52 52 50 49 49 48 47 47 48 49 49 49 50 49 47 46 46 50 49 48 49 50 50 48 50 52 50 48 49 50 48 47 47 43 45 43 44 44 45 46 46 47 44 42 40 38 37 41 40 42 40
58 57 55 56 52 52 53 53 52 51 52 51 51 51 49 50 49 47 48 47 46 47 47 49 51 48 48 48 50 50 49 49 50 48 48 49 49 49 48 48 49 50 50 47 47 46 44 43 44 45 46 46 46 47 45 41 41 41 39 40 42 38 40
58 58 55 57 52 52 53 53 53 53 52 49 50 53 49 49 48 49 47 46 46 47 50 50 48 48 50 50 49 49 49 50 49 48 48 48 48 48 48 48 48 49 48 46 47 47 49 48 45 45 46 47 46 47 48 46 42 44 42 41 42 37 41
57 57 56 57 53 52 52 52 54 53 52 49 51 52 48 49 49 49 48 47 47 48 48 48 47 49 51 50 47 47 48 49 48 48 47 48 51 48 48 47 48 50 49 46 49 46 47 49 49 47 46 46 45 48 48 47 47 48 44 41 42 40 42
57 58 58 57 54 53 53 53 53 54 53 50 52 50 46 49 48 49 48 47 47 48 47 48 48 49 49 50 49 49 48 49 50 48 47 48 48 48 47 47 49 49 48 47 48 49 50 49 49 48 46 45 48 50 48 47 47 47 45 44 43 42 44
58 58 58 58 58 56 54 54 53 53 53 53 54 51 46 48 49 48 47 48 48 47 48 48 47 47 47 49 48 49 49 50 50 48 48 49 48 49 48 48 48 49 49 50 50 50 50 50 50 50 50 48 47 48 48 48 47 48 44 43 44 45 43
58 59 58 58 58 57 57 56 52 53 53 52 53 52 51 51 50 49 46 47 47 47 47 48 48 47 47 49 48 50 48 49 50 49 48 49 49 50 49 48 49 51 52 52 50 50 50 49 49 50 50 50 50 49 49 48 46 46 46 46 44 42 44
59 58 58 58 58 58 58 57 57 56 54 52 53 52 53 51 51 48 50 49 48 48 47 48 50 48 48 50 48 50 49 48 49 50 48 50 49 50 52 52 53 52 53 55 53 52 52 52 50 48 48 50 49 48 49 49 49 47 46 45 44 44 44
57 57 57 58 58 58 58 57 56 56 57 55 53 52 51 50 49 50 49 51 50 50 49 49 50 48 48 49 50 50 51 49 50 50 49 50 50 50 53 53 54 57 54 51 47 44 44 46 49 48 48 49 49 48 48 48 48 48 46 45 44 43 43
57 58 57 57 58 57 57 57 56 56 57 55 54 56 56 55 54 54 54 53 52 53 53 53 44 43 45 46 50 50 51 51 51 51 50 50 52 53 53 53 51 52 51 50 46 42 41 41 41 41 42 45 49 48 47 48 47 47 46 45 45 44 44
57 56 56 56 56 57 57 56 55 55 55 55 54 55 56 55 54 54 54 53 52 53 53 51 46 46 45 46 48 51 51 52 52 52 52 52 55 53 53 54 52 52 51 50 48 45 43 40 38 38 37 37 38 39 45 47 46 44 44 45 45 44 44
56 56 56 57 57 56 56 55 55 55 55 55 54 54 55 54 54 54 54 53 52 52 52 50 47 46 46 45 45 48 53 52 52 53 54 54 54 53 53 54 54 54 55 54 53 50 47 43 40 38 38 38 37 36 37 39 41 43 45 45 46 45 44
50 54 55 55 56 56 55 54 54 54 55 54 54 54 54 55 54 53 52 52 52 52 52 50 46 45 44 44 44 47 52 54 53 54 53 54 53 53 52 52 53 53 54 55 53 52 50 46 42 40 40 41 38 37 36 36 37 40 44 46 46 46 46
39 42 43 47 52 52 52 54 55 55 54 53 54 53 53 53 53 53 52 51 52 52 53 48 45 43 42 43 43 44 49 52 54 54 54 54 54 54 53 53 53 54 53 54 54 53 52 48 46 45 44 44 39 40 44 45 46 48 48 48 47 45 44
36 37 40 42 44 45 46 51 51 54 53 53 53 53 53 54 54 54 53 52 52 53 54 48 44 43 42 42 43 47 49 50 52 53 52 55 55 55 54 54 53 54 54 54 51 48 49 49 48 46 45 44 42 38 36 36 36 41 45 44 41 38 37
35 35 38 40 43 44 44 45 46 50 52 52 52 53 54 54 55 54 53 53 53 53 53 50 45 44 43 42 45 48 48 50 51 52 52 53 54 55 55 55 54 53 54 54 49 44 45 46 48 47 46 45 42 38 35 36 36 35 36 36 36 35 35
35 37 38 39 41 42 44 44 44 46 45 46 50 52 54 55 54 55 54 54 54 54 54 51 47 45 44 43 46 51 50 50 50 50 51 52 53 54 54 54 54 55 54 54 46 43 42 46 48 47 46 45 43 40 38 39 38 37 36 35 35 35 35
36 37 38 38 40 40 41 41 42 42 43 44 44 45 48 53 55 55 55 55 54 54 54 52 48 45 44 43 45 50 51 51 49 50 52 52 52 52 51 51 49 50 53 52 44 43 41 46 49 47 46 45 44 41 39 39 37 37 39 38 37 37 35
37 37 37 37 37 38 38 36 37 38 39 41 43 44 44 45 48 51 54 55 55 55 55 54 52 46 45 44 43 49 51 51 50 50 52 52 51 47 47 47 45 42 46 45 41 41 41 44 49 48 47 46 45 43 43 40 40 38 40 40 39 39 39
37 37 37 38 37 38 37 38 38 39 39 41 42 43 43 44 45 46 48 53 55 55 55 55 53 47 45 44 43 44 50 51 51 51 52 51 51 47 44 44 43 42 40 39 38 39 40 41 44 49 48 46 46 44 41 41 42 42 41 39 39 39 39
38 39 38 37 36 36 37 37 37 37 37 37 38 40 42 43 44 45 46 47 53 54 54 52 55 48 44 43 42 41 48 51 51 52 52 52 51 47 44 44 43 40 38 38 38 38 38 38 38 42 40 38 38 38 41 41 40 39 38 37 37 36 35
37 39 38 38 37 36 36 36 36 37 37 37 38 38 38 39 40 41 43 45 48 53 53 52 49 50 43 42 41 40 42 47 47 52 52 51 49 46 44 42 41 38 36 36 36 36 35 34 34 33 34 36 37 38 39 40 38 38 37 36 35 34 33
36 36 37 37 37 36 35 36 36 36 35 35 35 35 36 39 41 42 43 44 47 50 52 53 49 47 45 40 40 39 39 39 39 48 52 51 48 44 42 40 38 35 36 35 34 33 32 32 30 31 31 32 34 36 37 36 35 35 33 32 32 31 33

ECMWFFLT1_sfc_dewp_036.txt.gz
Dewpoint
54 54 56 57 58 58 57 57 56 57 59 60 60 60 61 60 60 60 60 60 61 62 62 61 60 60 62 62 62 61 60 59 58 57 57 58 58 58 59 58 58 58 57 55 54 52 51 51 51 52 53 55 55 54 56 55 55 55 54 53 52 51 51
54 55 56 57 57 57 56 56 56 56 57 57 58 58 58 59 61 60 60 60 60 61 62 61 60 61 60 61 61 60 60 58 58 57 58 58 58 58 57 56 58 57 56 55 53 51 50 49 48 50 50 49 50 52 53 52 52 52 51 50 50 49 50
54 54 55 56 56 56 56 55 55 55 55 56 56 57 58 59 58 58 58 58 59 60 61 60 60 60 60 60 61 61 60 59 58 58 58 58 58 58 58 57 56 55 54 53 52 51 51 49 49 48 48 46 48 49 52 51 50 50 49 48 47 46 46
53 53 53 53 55 55 55 54 54 55 56 56 56 56 57 58 58 59 57 58 59 60 60 60 60 60 60 60 61 61 60 59 58 58 57 58 58 58 57 57 57 56 54 51 51 50 50 48 48 47 46 46 48 49 50 50 49 47 46 46 44 44 44
52 52 51 53 54 55 54 54 54 55 54 54 54 55 56 56 57 56 56 56 57 57 58 58 58 59 59 60 60 60 60 59 59 59 58 57 57 58 57 57 56 55 54 53 53 52 50 49 47 46 45 45 46 47 48 48 47 47 45 43 43 43 43
53 51 51 53 54 54 54 55 54 54 54 53 53 53 54 55 56 55 54 53 54 56 57 58 58 58 58 59 59 59 59 59 59 58 58 57 57 58 58 57 57 56 56 56 55 53 51 50 48 45 45 46 46 46 45 45 43 43 46 46 44 44 43
53 52 52 54 54 54 56 55 54 55 54 53 52 52 54 56 56 56 55 54 54 55 56 56 57 57 58 59 58 58 58 57 57 57 57 56 56 56 56 57 56 56 56 57 55 53 51 49 47 45 45 44 45 43 38 37 41 40 41 45 45 44 44
54 53 53 55 55 55 56 55 55 56 55 53 54 54 55 56 55 53 52 52 53 54 55 56 56 56 56 58 57 57 57 57 57 57 57 57 57 56 56 56 57 57 57 57 55 53 52 49 47 46 44 42 40 38 36 32 34 38 39 41 45 46 46
56 55 55 55 55 56 55 55 56 56 55 55 55 56 55 54 54 53 54 54 54 54 54 54 54 55 55 56 55 56 56 58 56 56 56 57 56 56 56 55 56 56 56 57 56 56 52 51 49 47 45 43 39 35 34 34 34 36 39 38 40 44 47
55 54 54 55 55 55 56 56 56 55 54 55 55 55 54 54 54 53 53 52 53 53 53 53 53 53 53 53 53 53 52 51 52 51 51 53 53 55 54 55 55 55 56 55 55 55 55 53 50 46 44 43 40 33 31 32 34 36 35 37 36 39 44
55 55 55 55 55 56 55 54 54 54 54 55 55 55 53 53 54 55 52 51 52 52 52 52 52 51 50 50 50 51 51 51 51 51 51 51 50 51 51 50 51 53 53 54 54 52 53 53 50 45 43 43 38 33 33 32 32 37 36 36 35 36 39
55 55 55 55 55 54 53 53 53 54 55 55 54 52 51 51 51 51 51 50 50 51 51 51 50 50 49 50 50 50 50 51 50 50 50 50 49 50 50 50 50 49 50 50 50 50 50 51 50 45 45 45 41 35 33 34 33 36 37 35 35 35 38
55 54 54 54 54 53 53 53 53 53 54 53 51 51 50 50 50 49 49 49 49 49 49 48 48 48 49 49 49 49 49 50 50 50 49 49 49 49 48 47 48 47 47 48 48 48 48 48 48 46 46 44 41 40 37 34 33 34 42 38 36 35 38
54 53 53 53 53 53 53 53 53 53 53 51 51 50 50 49 49 49 48 49 48 48 47 46 47 48 48 48 48 49 48 50 49 49 49 48 50 50 50 49 49 49 47 46 46 46 47 47 47 47 46 43 42 40 36 36 34 37 37 43 39 36 37
54 53 53 53 53 53 53 52 53 53 51 51 50 50 49 49 49 48 47 48 48 48 47 47 48 48 48 47 47 49 48 49 49 48 48 49 49 50 48 47 48 48 47 45 45 45 45 45 44 44 43 42 40 40 38 37 37 35 35 39 37 40 38
55 54 53 52 52 53 52 52 53 52 51 51 51 50 49 49 49 47 47 47 48 47 47 48 48 47 46 46 47 47 48 48 48 48 48 48 48 48 47 48 47 47 48 46 45 45 45 44 44 42 43 42 40 40 40 37 37 37 37 38 40 38 38
58 57 54 52 52 53 52 52 52 51 51 51 51 51 49 48 48 46 47 46 46 47 48 49 47 46 47 47 47 48 48 48 48 48 48 48 47 47 46 46 46 46 46 45 45 45 46 45 45 45 45 45 43 42 42 40 38 40 39 37 39 36 39
58 58 57 54 52 52 52 51 52 51 51 50 51 51 50 49 48 47 47 46 46 47 49 48 47 47 48 48 48 48 49 48 48 48 48 48 51 47 47 45 46 46 46 46 46 46 46 45 45 45 45 45 44 45 46 42 42 41 39 37 38 40 41
57 56 57 56 54 53 52 52 52 52 50 49 51 51 48 48 48 46 45 45 46 47 48 47 46 49 49 48 48 48 48 48 48 48 48 49 49 48 47 47 47 46 46 46 46 47 47 47 46 45 44 45 46 46 45 45 44 41 39 38 39 39 41
56 56 57 56 57 56 53 52 52 52 50 48 50 49 47 48 49 46 46 46 47 48 48 47 47 48 48 48 47 47 48 48 48 47 47 48 48 47 47 48 48 47 47 48 48 48 48 47 47 45 45 46 46 45 45 45 45 42 40 39 40 40 39
56 56 56 57 58 58 57 55 52 53 52 52 51 48 46 48 48 47 46 46 47 48 47 47 47 48 48 48 48 47 48 49 48 47 47 47 47 47 47 48 48 48 48 49 49 49 48 48 48 47 47 47 46 45 45 46 45 43 42 41 40 41 42
56 56 57 57 57 57 57 57 56 54 52 52 53 50 49 51 49 48 47 47 47 48 48 48 47 47 47 48 47 48 48 49 48 47 47 47 47 48 47 48 48 49 51 53 51 49 49 50 48 47 47 47 47 47 46 45 45 45 43 43 42 42 42
56 56 57 56 56 57 57 56 56 56 55 54 52 51 51 50 49 48 48 48 47 48 48 48 49 47 47 48 48 48 48 47 48 47 47 47 47 48 48 48 49 55 54 52 50 47 46 47 49 48 48 47 47 47 47 46 45 45 44 43 42 42 42
55 55 56 56 55 56 57 56 56 55 55 54 54 54 52 51 51 50 51 50 48 48 49 50 46 43 42 45 47 48 48 47 47 48 47 48 47 49 50 50 50 54 53 52 48 44 43 43 43 44 46 47 48 47 47 46 46 45 45 43 43 42 42
55 54 54 55 55 55 56 55 54 51 54 54 53 53 54 53 52 51 51 50 49 50 50 49 42 42 42 42 45 48 49 48 49 49 49 48 49 50 51 51 50 52 51 49 47 44 43 41 40 39 39 40 42 44 46 47 46 44 44 44 43 43 43
55 54 54 54 55 54 53 54 54 54 53 54 52 54 53 53 52 51 50 50 50 50 50 44 42 43 43 43 43 47 49 49 48 49 50 49 51 51 51 51 50 51 51 52 50 45 43 41 39 39 39 38 39 39 40 43 43 46 46 45 44 43 43
40 44 50 51 52 52 53 53 52 53 53 52 52 53 53 52 52 51 51 50 49 49 49 46 40 42 43 42 42 47 51 51 50 50 52 52 52 52 52 52 51 51 51 52 50 48 46 43 41 40 40 40 39 38 38 38 40 42 44 46 45 44 45
38 40 42 44 44 45 47 47 49 51 52 52 51 52 52 52 52 51 51 50 49 50 51 47 41 40 40 41 41 44 50 52 52 52 53 53 53 53 53 53 52 51 52 52 51 49 48 45 43 43 42 41 39 42 44 44 44 46 47 47 46 46 46
37 38 38 39 39 40 41 42 43 46 47 49 50 51 50 50 50 51 51 50 50 51 52 47 43 41 39 40 40 48 49 51 52 52 52 53 53 52 52 53 53 52 52 53 49 45 46 47 45 44 43 41 40 37 37 38 37 39 45 46 45 44 41
37 37 37 37 37 38 38 38 38 42 40 42 43 46 49 50 52 52 50 49 50 51 52 49 44 42 42 40 42 48 49 50 51 51 52 52 52 52 53 53 51 52 52 52 49 43 44 45 46 45 44 42 40 37 36 36 36 37 39 39 38 38 37
37 37 37 37 37 37 37 37 37 39 38 38 39 41 44 47 49 50 51 52 52 52 52 51 47 45 43 40 45 50 49 49 49 50 50 51 52 53 54 52 53 52 51 53 48 43 43 45 47 47 45 42 40 37 35 37 38 37 37 36 36 35 35
37 37 37 37 37 37 37 37 37 38 38 38 38 39 41 41 43 46 49 51 53 52 53 52 47 45 44 42 44 49 50 49 48 48 50 51 51 51 52 52 51 51 52 51 46 43 42 45 49 48 46 43 42 38 36 36 35 33 33 32 32 32 32
37 37 37 37 37 38 38 36 37 37 37 36 36 37 37 38 39 41 44 46 49 51 52 53 51 46 45 45 44 49 49 50 49 49 49 51 51 50 50 51 50 46 45 46 44 42 42 43 49 48 46 45 43 41 38 35 34 35 36 37 33 36 34
37 37 38 38 38 38 37 37 37 37 36 36 36 36 36 37 37 38 39 41 45 47 50 51 51 47 46 45 44 45 49 50 51 51 50 50 51 51 50 50 50 47 44 43 43 42 42 42 44 48 47 46 46 44 40 37 37 38 38 39 39 40 40
38 39 38 38 36 36 37 37 37 36 36 36 35 35 35 36 36 36 37 39 41 44 47 48 51 48 46 46 45 43 48 50 50 51 50 50 51 50 51 50 50 47 43 42 42 41 41 42 42 48 47 43 39 37 38 39 38 41 41 39 38 37 35
36 37 37 37 36 35 36 36 36 36 35 35 34 34 34 34 34 35 36 38 39 42 44 46 44 47 46 45 45 42 43 46 45 50 51 51 51 51 50 48 47 44 41 41 40 40 41 41 41 43 40 39 38 37 38 40 40 38 36 35 34 33 34
36 36 36 36 36 35 35 35 35 36 35 35 34 33 33 34 34 34 34 35 36 39 42 44 43 43 45 45 44 43 40 40 42 48 51 51 51 50 48 46 44 39 39 38 39 40 39 40 42 38 39 38 37 38 42 39 37 36 34 32 33 32 33